M I D A S
Marine Information and Data Acquisition System
Tripno 758 of the Zeeleeuw from 2004-07-23 09:13:46 to 2004-07-23 13:34:26
Back to CruiseResearch ActivitiesStationsMapUnderway DataData graphs

EquipmentUnitsComment
TimeDGPSUTC
LatitudeDGPSDM.mWGS84
LongitudeDGPSDM.mWGS84
TemperatureSBE03/SBE38deg celciusITS90
ConductivitySBE21S/mITS90
SalinitySBE21 Practical Salinity Units
ChlorophylAChelsea fluorimeterg/lCalibrated in Aceton
Missing or incorrect values are displayed as -999
Sea surface data collected by the RV Zeeleeuw from 2004-07-23 09:13:46 to 2004-07-23 13:34:26
                                                                                    Next 1000 lines
Time Latitude Longitude Temperature Conductivity Salinity ChlorophylA
2004-07-23 09:13:54 51°13.598 2°56.096 22.994888 0.111099 0.542252 -0.74754
2004-07-23 09:14:00 51°13.598 2°56.096 23.007302 0.111099 0.54226 -0.71383
2004-07-23 09:14:06 51°13.598 2°56.097 22.998263 0.111099 0.542267 -0.71383
2004-07-23 09:14:10 51°13.598 2°56.097 22.994888 0.111099 0.542267 -0.74754
2004-07-23 09:14:14 51°13.598 2°56.097 22.994888 0.111099 0.542267 -0.74754
2004-07-23 09:14:20 51°13.598 2°56.097 23.004974 0.111099 0.542275 -0.71383
2004-07-23 09:14:23 51°13.598 2°56.097 23.008543 0.111099 0.542275 -0.71383
2004-07-23 09:14:30 51°13.598 2°56.097 23.010793 0.111099 0.542282 -0.74754
2004-07-23 09:14:34 51°13.598 2°56.097 23.010172 0.111099 0.542282 -0.74754
2004-07-23 09:14:40 51°13.598 2°56.097 23.013934 0.111099 0.54229 -0.74754
2004-07-23 09:14:44 51°13.597 2°56.097 23.013934 0.111099 0.54229 -0.74754
2004-07-23 09:14:50 51°13.597 2°56.097 23.015176 0.111099 0.54229 -0.74754
2004-07-23 09:14:54 51°13.597 2°56.097 23.016029 0.111099 0.54229 -0.74754
2004-07-23 09:15:00 51°13.597 2°56.096 23.010948 0.111099 0.542304 -0.71383
2004-07-23 09:15:04 51°13.597 2°56.095 22.999039 0.111099 0.542312 -0.71383
2004-07-23 09:15:08 51°13.597 2°56.094 23.001483 0.111099 0.542312 -0.71383
2004-07-23 09:15:14 51°13.598 2°56.092 23.001483 0.111099 0.542312 -0.71383
2004-07-23 09:15:18 51°13.599 2°56.089 22.966289 0.111099 0.542312 -0.74754
2004-07-23 09:15:24 51°13.6 2°56.085 22.977854 0.111099 0.542319 -0.71383
2004-07-23 09:15:30 51°13.601 2°56.079 22.988175 0.111099 0.542312 -0.74754
2004-07-23 09:15:36 51°13.603 2°56.073 23.004043 0.111099 0.542327 -0.74754
2004-07-23 09:15:39 51°13.604 2°56.07 23.002841 0.111099 0.542327 -0.74754
2004-07-23 09:15:46 51°13.606 2°56.062 23.002841 0.111099 0.542327 -0.74754
2004-07-23 09:15:50 51°13.608 2°56.057 23.001366 0.111099 0.542327 -0.71383
2004-07-23 09:15:56 51°13.61 2°56.049 23.011258 0.111099 0.542334 -0.71383
2004-07-23 09:16:00 51°13.611 2°56.044 23.012654 0.111099 0.542334 -0.74754
2004-07-23 09:16:06 51°13.614 2°56.036 23.015098 0.111099 0.542341 -0.74754
2004-07-23 09:16:10 51°13.615 2°56.031 23.01696 0.111099 0.542341 -0.71383
2004-07-23 09:16:16 51°13.617 2°56.022 23.01696 0.111099 0.542341 -0.71383
2004-07-23 09:16:20 51°13.619 2°56.016 23.017968 0.111099 0.542349 -0.71383
2004-07-23 09:16:26 51°13.622 2°56.007 23.015253 0.111099 0.542356 -0.74754
2004-07-23 09:16:30 51°13.624 2°56.001 23.01824 0.111099 0.542349 -0.74754
2004-07-23 09:16:36 51°13.626 2°55.992 23.010948 0.111099 0.542356 -0.74754
2004-07-23 09:16:40 51°13.629 2°55.986 23.027121 0.111099 0.542356 -0.74754
2004-07-23 09:16:46 51°13.632 2°55.976 23.027121 0.111099 0.542356 -0.74754
2004-07-23 09:16:50 51°13.634 2°55.97 23.033519 0.111099 0.542364 -0.71383
2004-07-23 09:16:56 51°13.637 2°55.959 23.004741 0.111099 0.542364 -0.74754
2004-07-23 09:17:00 51°13.639 2°55.953 23.049803 0.111099 0.542371 -0.71383
2004-07-23 09:17:06 51°13.643 2°55.942 23.030184 0.111099 0.542379 -0.74754
2004-07-23 09:17:10 51°13.645 2°55.935 23.025725 0.111099 0.542379 -0.74754
2004-07-23 09:17:16 51°13.648 2°55.925 23.025725 0.111099 0.542379 -0.74754
2004-07-23 09:17:20 51°13.65 2°55.918 23.036776 0.111099 0.542386 -0.71383
2004-07-23 09:17:26 51°13.653 2°55.908 23.030882 0.111099 0.542386 -0.71383
2004-07-23 09:17:30 51°13.655 2°55.901 23.032278 0.111099 0.542393 -0.74754
2004-07-23 09:17:36 51°13.658 2°55.89 23.030029 0.111099 0.542393 -0.74754
2004-07-23 09:17:40 51°13.66 2°55.882 23.037513 0.111099 0.542393 -0.74754
2004-07-23 09:17:46 51°13.662 2°55.871 23.037513 0.111099 0.542393 -0.74754
2004-07-23 09:17:50 51°13.664 2°55.864 23.039607 0.111099 0.542393 -0.74754
2004-07-23 09:17:55 51°13.666 2°55.855 23.039684 0.111099 0.542401 -0.71383
2004-07-23 09:17:59 51°13.668 2°55.847 23.034295 0.111099 0.542408 -0.74754
2004-07-23 09:18:05 51°13.67 2°55.836 23.044104 0.111099 0.542416 -0.74754
2004-07-23 09:18:10 51°13.671 2°55.826 23.046585 0.111099 0.542416 -0.74754
2004-07-23 09:18:15 51°13.673 2°55.817 23.046585 0.111099 0.542416 -0.74754
2004-07-23 09:18:19 51°13.674 2°55.809 23.036699 0.111099 0.542416 -0.71383
2004-07-23 09:18:25 51°13.675 2°55.797 23.04519 0.111099 0.542416 -0.71383
2004-07-23 09:18:30 51°13.676 2°55.788 23.057711 0.111099 0.542416 -0.74754
2004-07-23 09:18:35 51°13.677 2°55.779 23.048524 0.111099 0.542423 -0.74754
2004-07-23 09:18:39 51°13.677 2°55.773 23.054533 0.111099 0.542431 -0.74754
2004-07-23 09:18:45 51°13.678 2°55.764 23.054533 0.111099 0.542431 -0.74754
2004-07-23 09:18:50 51°13.678 2°55.758 23.038133 0.111099 0.542431 -0.71383
2004-07-23 09:18:54 51°13.678 2°55.754 23.049105 0.111099 0.542431 -0.71383
2004-07-23 09:18:59 51°13.678 2°55.751 23.063874 0.111099 0.542431 -0.781249
2004-07-23 09:19:03 51°13.679 2°55.749 23.089451 0.111099 0.542438 -0.74754
2004-07-23 09:19:10 51°13.679 2°55.748 23.085344 0.111099 0.542438 -0.781249
2004-07-23 09:19:14 51°13.68 2°55.748 23.085344 0.111099 0.542438 -0.781249
2004-07-23 09:19:20 51°13.681 2°55.749 23.118195 0.111099 0.542438 -0.74754
2004-07-23 09:19:24 51°13.682 2°55.751 23.10673 0.111099 0.542453 -0.74754
2004-07-23 09:19:30 51°13.684 2°55.754 23.129813 0.111099 0.54246 -0.71383
2004-07-23 09:19:34 51°13.685 2°55.755 23.1058 0.111099 0.542468 -0.74754
2004-07-23 09:19:39 51°13.688 2°55.758 23.159044 0.111099 0.542475 -0.74754
2004-07-23 09:19:42 51°13.69 2°55.759 23.159044 0.111099 0.542475 -0.74754
2004-07-23 09:19:49 51°13.695 2°55.761 23.162528 0.111099 0.542475 -0.71383
2004-07-23 09:19:53 51°13.699 2°55.762 23.257606 0.111099 0.542483 -0.74754
2004-07-23 09:19:59 51°13.705 2°55.761 23.254514 0.111099 0.542475 -0.71383
2004-07-23 09:20:04 51°13.711 2°55.759 23.250571 0.111099 0.542483 -0.71383
2004-07-23 09:20:09 51°13.717 2°55.756 23.23205 0.111099 0.542483 -0.71383
2004-07-23 09:20:13 51°13.721 2°55.752 23.23205 0.111099 0.542483 -0.71383
2004-07-23 09:20:19 51°13.728 2°55.745 23.096968 0.111099 0.54249 -0.71383
2004-07-23 09:20:25 51°13.735 2°55.737 23.103515 0.111099 0.54249 -0.71383
2004-07-23 09:20:29 51°13.74 2°55.731 23.060541 0.111099 0.542483 -0.71383
2004-07-23 09:20:34 51°13.746 2°55.723 23.016882 0.111099 0.542483 -0.71383
2004-07-23 09:20:39 51°13.753 2°55.715 23.003228 0.111099 0.542475 -0.71383
2004-07-23 09:20:42 51°13.758 2°55.71 23.003228 0.111099 0.542475 -0.71383
2004-07-23 09:20:49 51°13.768 2°55.697 23.009396 0.111099 0.542483 -0.74754
2004-07-23 09:20:53 51°13.774 2°55.69 23.029486 0.111099 0.54249 -0.74754
2004-07-23 09:20:59 51°13.784 2°55.68 22.998806 0.111099 0.542497 -0.74754
2004-07-23 09:21:03 51°13.791 2°55.672 23.018976 0.111099 0.542497 -0.71383
2004-07-23 09:21:09 51°13.802 2°55.662 23.026617 0.111099 0.542505 -0.71383
2004-07-23 09:21:14 51°13.811 2°55.653 23.026617 0.111099 0.542505 -0.71383
2004-07-23 09:21:19 51°13.821 2°55.644 23.028943 0.111099 0.542512 -0.74754
2004-07-23 09:21:23 51°13.829 2°55.637 22.998379 0.111099 0.54252 -0.71383
2004-07-23 09:21:30 51°13.843 2°55.625 23.004043 0.111099 0.54252 -0.71383
2004-07-23 09:21:34 51°13.852 2°55.619 23.011646 0.111099 0.542527 -0.680121
2004-07-23 09:21:39 51°13.862 2°55.611 23.030339 0.111099 0.542535 -0.74754
2004-07-23 09:21:43 51°13.871 2°55.605 23.030339 0.111099 0.542535 -0.74754
2004-07-23 09:21:49 51°13.884 2°55.596 23.038133 0.111099 0.542542 -0.74754
2004-07-23 09:21:54 51°13.896 2°55.589 23.04108 0.111099 0.542557 -0.71383
2004-07-23 09:21:59 51°13.907 2°55.581 23.03759 0.111099 0.542579 -0.74754
2004-07-23 09:22:03 51°13.916 2°55.576 23.037978 0.111099 0.542579 -0.74754
2004-07-23 09:22:09 51°13.93 2°55.568 23.04612 0.111099 0.542587 -0.74754
2004-07-23 09:22:14 51°13.941 2°55.561 23.04612 0.111099 0.542587 -0.74754
2004-07-23 09:22:19 51°13.953 2°55.554 23.047748 0.111099 0.542602 -0.74754
2004-07-23 09:22:26 51°13.969 2°55.545 23.03476 0.111099 0.542602 -0.74754
2004-07-23 09:22:30 51°13.979 2°55.539 23.04895 0.111099 0.542602 -0.71383
2004-07-23 09:22:34 51°13.988 2°55.534 23.049803 0.111099 0.542602 -0.680121
2004-07-23 09:22:38 51°13.998 2°55.528 23.054998 0.111099 0.542587 -0.74754
2004-07-23 09:22:44 51°14.012 2°55.519 23.054998 0.111099 0.542587 -0.74754
2004-07-23 09:22:50 51°14.026 2°55.511 23.035535 0.111099 0.542594 -0.74754
2004-07-23 09:22:54 51°14.036 2°55.505 23.049415 0.111099 0.542587 -0.74754
2004-07-23 09:23:00 51°14.05 2°55.496 23.061084 0.111099 0.542602 -0.71383
2004-07-23 09:23:04 51°14.06 2°55.49 23.025918 0.111099 0.542602 -0.71383
2004-07-23 09:23:10 51°14.075 2°55.48 23.053912 0.111099 0.542624 -0.71383
2004-07-23 09:23:14 51°14.084 2°55.473 23.053912 0.111099 0.542624 -0.71383
2004-07-23 09:23:20 51°14.099 2°55.463 23.03697 0.111099 0.542631 -0.74754
2004-07-23 09:23:22 51°14.104 2°55.46 23.059223 0.111099 0.542639 -0.71383
2004-07-23 09:23:30 51°14.124 2°55.444 23.07306 0.111099 0.542639 -0.71383
2004-07-23 09:23:34 51°14.134 2°55.436 23.074067 0.111099 0.542646 -0.71383
2004-07-23 09:23:39 51°14.146 2°55.425 23.032123 0.111099 0.542639 -0.71383
2004-07-23 09:23:43 51°14.156 2°55.416 23.032123 0.111099 0.542639 -0.71383
2004-07-23 09:23:50 51°14.173 2°55.4 23.077865 0.111099 0.542639 -0.74754
2004-07-23 09:23:54 51°14.183 2°55.389 23.246627 0.111099 0.542646 -0.74754
2004-07-23 09:23:59 51°14.194 2°55.373 23.216426 0.111099 0.542661 -0.71383
2004-07-23 09:24:02 51°14.201 2°55.363 23.043794 0.111099 0.542683 -0.74754
2004-07-23 09:24:10 51°14.219 2°55.336 23.044802 0.111099 0.542676 -0.74754
2004-07-23 09:24:14 51°14.228 2°55.321 23.044802 0.111099 0.542676 -0.74754
2004-07-23 09:24:18 51°14.237 2°55.306 23.038521 0.111099 0.542683 -0.71383
2004-07-23 09:24:24 51°14.25 2°55.283 23.027043 0.111099 0.542683 -0.74754
2004-07-23 09:24:30 51°14.263 2°55.259 23.03096 0.110995 0.542141 -0.74754
2004-07-23 09:24:35 51°14.274 2°55.238 23.032821 0.111099 0.542676 -0.71383
2004-07-23 09:24:40 51°14.285 2°55.217 22.989611 0.111099 0.542683 -0.71383
2004-07-23 09:24:45 51°14.296 2°55.196 22.989611 0.111099 0.542683 -0.71383
2004-07-23 09:24:50 51°14.307 2°55.175 22.948355 0.111099 0.542691 -0.74754
2004-07-23 09:24:54 51°14.317 2°55.159 22.942337 0.110995 0.542155 -0.74754
2004-07-23 09:25:00 51°14.332 2°55.135 23.015408 0.111099 0.542691 -0.74754
2004-07-23 09:25:06 51°14.348 2°55.112 22.954372 0.111099 0.542698 -0.74754
2004-07-23 09:25:10 51°14.358 2°55.096 22.992055 0.111099 0.54272 -0.71383
2004-07-23 09:25:14 51°14.368 2°55.082 22.992055 0.111099 0.54272 -0.71383
2004-07-23 09:25:20 51°14.384 2°55.059 23.01471 0.111099 0.54272 -0.680121
2004-07-23 09:25:24 51°14.395 2°55.043 23.043561 0.111099 0.542728 -0.74754
2004-07-23 09:25:30 51°14.411 2°55.019 23.062479 0.110995 0.542215 -0.74754
2004-07-23 09:25:34 51°14.422 2°55.003 23.088754 0.111099 0.542743 -0.74754
2004-07-23 09:25:39 51°14.434 2°54.981 23.19399 0.111099 0.542765 -0.71383
2004-07-23 09:25:44 51°14.446 2°54.959 23.19399 0.111099 0.542765 -0.71383
2004-07-23 09:25:50 51°14.461 2°54.932 23.015408 0.111099 0.542773 -0.71383
2004-07-23 09:25:54 51°14.471 2°54.916 22.941405 0.110995 0.542245 -0.74754
2004-07-23 09:25:59 51°14.486 2°54.897 22.985071 0.111099 0.542765 -0.74754
2004-07-23 09:26:04 51°14.5 2°54.879 23.054067 0.110995 0.542245 -0.74754
2004-07-23 09:26:10 51°14.517 2°54.858 23.088676 0.110995 0.542259 -0.71383
2004-07-23 09:26:14 51°14.529 2°54.845 23.088676 0.110995 0.542259 -0.71383
2004-07-23 09:26:20 51°14.547 2°54.825 23.040615 0.110995 0.542282 -0.71383
2004-07-23 09:26:26 51°14.565 2°54.805 23.084065 0.110995 0.542297 -0.74754
2004-07-23 09:26:30 51°14.576 2°54.792 23.061859 0.110995 0.542304 -0.74754
2004-07-23 09:26:34 51°14.588 2°54.779 23.025376 0.110995 0.542312 -0.74754
2004-07-23 09:26:40 51°14.606 2°54.76 23.06868 0.110995 0.542319 -0.71383
2004-07-23 09:26:44 51°14.619 2°54.747 23.06868 0.110995 0.542319 -0.71383
2004-07-23 09:26:50 51°14.637 2°54.73 23.022467 0.110995 0.542312 -0.71383
2004-07-23 09:26:54 51°14.65 2°54.718 23.030572 0.110995 0.542319 -0.71383
2004-07-23 09:27:00 51°14.669 2°54.702 23.054998 0.110995 0.542326 -0.74754
2004-07-23 09:27:04 51°14.681 2°54.691 23.055463 0.110995 0.542334 -0.71383
2004-07-23 09:27:10 51°14.7 2°54.675 23.087591 0.110995 0.542356 -0.71383
2004-07-23 09:27:14 51°14.713 2°54.664 23.087591 0.110995 0.542356 -0.71383
2004-07-23 09:27:20 51°14.732 2°54.648 23.084802 0.110995 0.542364 -0.74754
2004-07-23 09:27:26 51°14.752 2°54.631 23.084724 0.110995 0.542378 -0.71383
2004-07-23 09:27:30 51°14.764 2°54.621 23.090614 0.110995 0.542386 -0.71383
2004-07-23 09:27:34 51°14.777 2°54.609 23.112347 0.110995 0.542408 -0.74754
2004-07-23 09:27:40 51°14.796 2°54.592 23.085422 0.110995 0.542423 -0.71383
2004-07-23 09:27:44 51°14.808 2°54.58 23.085422 0.110995 0.542423 -0.71383
2004-07-23 09:27:50 51°14.827 2°54.562 23.107737 0.110995 0.542423 -0.781249
2004-07-23 09:27:54 51°14.839 2°54.55 23.077943 0.110995 0.54243 -0.74754
2004-07-23 09:28:00 51°14.857 2°54.531 23.082554 0.110995 0.54243 -0.74754
2004-07-23 09:28:04 51°14.87 2°54.519 23.088754 0.110995 0.542438 -0.71383
2004-07-23 09:28:10 51°14.888 2°54.501 23.062169 0.110995 0.542438 -0.71383
2004-07-23 09:28:14 51°14.9 2°54.488 23.062169 0.110995 0.542438 -0.71383
2004-07-23 09:28:20 51°14.919 2°54.471 23.04643 0.110995 0.542438 -0.71383
2004-07-23 09:28:24 51°14.931 2°54.46 23.042398 0.110995 0.542453 -0.74754
2004-07-23 09:28:30 51°14.95 2°54.444 23.050656 0.110995 0.54246 -0.74754
2004-07-23 09:28:34 51°14.963 2°54.434 23.054145 0.110995 0.542475 -0.74754
2004-07-23 09:28:40 51°14.982 2°54.419 23.056626 0.110995 0.54249 -0.71383
2004-07-23 09:28:46 51°15.001 2°54.405 23.056626 0.110995 0.54249 -0.71383
2004-07-23 09:28:50 51°15.013 2°54.396 23.058487 0.110995 0.542497 -0.74754
2004-07-23 09:28:54 51°15.026 2°54.387 23.074688 0.110995 0.542512 -0.74754
2004-07-23 09:29:00 51°15.045 2°54.373 23.043096 0.110995 0.542512 -0.74754
2004-07-23 09:29:06 51°15.064 2°54.359 23.045112 0.110995 0.542512 -0.74754
2004-07-23 09:29:10 51°15.077 2°54.35 23.08143 0.110995 0.542527 -0.71383
2004-07-23 09:29:14 51°15.089 2°54.341 23.08143 0.110995 0.542527 -0.71383
2004-07-23 09:29:20 51°15.108 2°54.326 23.090071 0.110995 0.542527 -0.74754
2004-07-23 09:29:22 51°15.114 2°54.321 23.062789 0.110995 0.542542 -0.74754
2004-07-23 09:29:30 51°15.14 2°54.301 23.07275 0.110995 0.542557 -0.74754
2004-07-23 09:29:34 51°15.152 2°54.29 23.125399 0.110995 0.542564 -0.74754
2004-07-23 09:29:38 51°15.165 2°54.279 23.131324 0.110995 0.542587 -0.71383
2004-07-23 09:29:42 51°15.177 2°54.267 23.131324 0.110995 0.542587 -0.71383
2004-07-23 09:29:50 51°15.201 2°54.24 23.124934 0.110995 0.542602 -0.74754
2004-07-23 09:29:54 51°15.212 2°54.227 23.109287 0.110995 0.542609 -0.71383
2004-07-23 09:30:00 51°15.229 2°54.206 23.09135 0.110995 0.542609 -0.71383
2004-07-23 09:30:02 51°15.235 2°54.199 23.07089 0.110995 0.542617 -0.71383
2004-07-23 09:30:10 51°15.258 2°54.171 23.087359 0.110995 0.542617 -0.71383
2004-07-23 09:30:14 51°15.27 2°54.157 23.087359 0.110995 0.542617 -0.71383
2004-07-23 09:30:20 51°15.288 2°54.137 23.045035 0.110995 0.542617 -0.74754
2004-07-23 09:30:24 51°15.3 2°54.125 23.027857 0.110995 0.542617 -0.71383
2004-07-23 09:30:30 51°15.319 2°54.109 23.013314 0.110995 0.542609 -0.71383
2004-07-23 09:30:34 51°15.333 2°54.099 23.060541 0.110995 0.542617 -0.71383
2004-07-23 09:30:40 51°15.352 2°54.085 23.100183 0.110995 0.542639 -0.74754
2004-07-23 09:30:44 51°15.365 2°54.077 23.100183 0.110995 0.542639 -0.74754
2004-07-23 09:30:50 51°15.385 2°54.064 23.115368 0.110995 0.542661 -0.781249
2004-07-23 09:30:54 51°15.399 2°54.055 23.088521 0.110995 0.542676 -0.71383
2004-07-23 09:31:00 51°15.419 2°54.042 23.116104 0.110995 0.542691 -0.71383
2004-07-23 09:31:04 51°15.432 2°54.033 23.135235 0.110995 0.542698 -0.71383
2004-07-23 09:31:10 51°15.452 2°54.019 23.084337 0.110995 0.542698 -0.74754
2004-07-23 09:31:14 51°15.465 2°54.009 23.084337 0.110995 0.542698 -0.74754
2004-07-23 09:31:20 51°15.485 2°53.994 23.109132 0.110995 0.542706 -0.781249
2004-07-23 09:31:24 51°15.498 2°53.983 23.127257 0.110995 0.542713 -0.71383
2004-07-23 09:31:30 51°15.517 2°53.967 23.095767 0.110995 0.542721 -0.74754
2004-07-23 09:31:34 51°15.53 2°53.957 23.096232 0.110995 0.542721 -0.71383
2004-07-23 09:31:40 51°15.549 2°53.94 23.116491 0.110995 0.542743 -0.71383
2004-07-23 09:31:44 51°15.562 2°53.93 23.116491 0.110995 0.542743 -0.71383
2004-07-23 09:31:50 51°15.582 2°53.914 23.0774 0.110995 0.542751 -0.71383
2004-07-23 09:31:54 51°15.595 2°53.903 23.097936 0.110891 0.54223 -0.74754
2004-07-23 09:32:00 51°15.615 2°53.888 23.087436 0.110995 0.542758 -0.74754
2004-07-23 09:32:06 51°15.634 2°53.874 23.072595 0.110995 0.542773 -0.74754
2004-07-23 09:32:10 51°15.648 2°53.864 23.104754 0.110891 0.542252 -0.71383
2004-07-23 09:32:14 51°15.661 2°53.854 23.104754 0.110891 0.542252 -0.71383
2004-07-23 09:32:20 51°15.68 2°53.839 23.083445 0.110995 0.54278 -0.71383
2004-07-23 09:32:24 51°15.694 2°53.83 23.079609 0.110891 0.542259 -0.74754
2004-07-23 09:32:30 51°15.713 2°53.815 23.115135 0.110891 0.542267 -0.74754
2004-07-23 09:32:34 51°15.726 2°53.805 23.124624 0.110995 0.542788 -0.71383
2004-07-23 09:32:40 51°15.746 2°53.789 23.090536 0.110891 0.542282 -0.74754
2004-07-23 09:32:44 51°15.759 2°53.778 23.090536 0.110891 0.542282 -0.74754
2004-07-23 09:32:48 51°15.771 2°53.767 23.127645 0.110891 0.542282 -0.74754
2004-07-23 09:32:54 51°15.791 2°53.751 23.074688 0.110891 0.542289 -0.71383
2004-07-23 09:33:00 51°15.81 2°53.735 23.077943 0.110891 0.542304 -0.71383
2004-07-23 09:33:04 51°15.823 2°53.724 23.080462 0.110892 0.542311 -0.71383
2004-07-23 09:33:10 51°15.843 2°53.709 23.096154 0.110892 0.542326 -0.71383
2004-07-23 09:33:14 51°15.856 2°53.699 23.096154 0.110892 0.542326 -0.71383
2004-07-23 09:33:20 51°15.875 2°53.684 23.094062 0.110892 0.542334 -0.781249
2004-07-23 09:33:24 51°15.888 2°53.673 23.111378 0.110892 0.542334 -0.74754
2004-07-23 09:33:30 51°15.907 2°53.658 23.097161 0.110892 0.542341 -0.71383
2004-07-23 09:33:34 51°15.921 2°53.648 23.087514 0.110892 0.542356 -0.71383
2004-07-23 09:33:40 51°15.94 2°53.632 23.135544 0.110892 0.542349 -0.74754
2004-07-23 09:33:44 51°15.953 2°53.622 23.135544 0.110892 0.542349 -0.74754
2004-07-23 09:33:50 51°15.972 2°53.607 23.120984 0.110892 0.542364 -0.781249
2004-07-23 09:33:54 51°15.985 2°53.597 23.094643 0.110892 0.542364 -0.71383
2004-07-23 09:34:00 51°16.005 2°53.581 23.104832 0.110892 0.542371 -0.71383
2004-07-23 09:34:04 51°16.018 2°53.571 23.123307 0.110892 0.542378 -0.74754
2004-07-23 09:34:10 51°16.037 2°53.556 23.127103 0.110892 0.542386 -0.781249
2004-07-23 09:34:14 51°16.05 2°53.545 23.127103 0.110892 0.542386 -0.781249
2004-07-23 09:34:19 51°16.066 2°53.532 23.104367 0.110892 0.542401 -0.71383
2004-07-23 09:34:24 51°16.082 2°53.518 23.101268 0.110892 0.542416 -0.71383
2004-07-23 09:34:30 51°16.101 2°53.502 23.100416 0.110892 0.542416 -0.74754
2004-07-23 09:34:35 51°16.117 2°53.489 23.10367 0.110892 0.542431 -0.71383
2004-07-23 09:34:40 51°16.133 2°53.476 23.099486 0.110892 0.542431 -0.74754
2004-07-23 09:34:44 51°16.146 2°53.465 23.099486 0.110892 0.542431 -0.74754
2004-07-23 09:34:50 51°16.165 2°53.45 23.088676 0.110892 0.542438 -0.71383
2004-07-23 09:34:54 51°16.178 2°53.439 23.118505 0.110892 0.542453 -0.71383
2004-07-23 09:35:00 51°16.197 2°53.424 23.099098 0.110892 0.542438 -0.71383
2004-07-23 09:35:02 51°16.204 2°53.419 23.116994 0.110892 0.542453 -0.74754
2004-07-23 09:35:10 51°16.23 2°53.398 23.117769 0.110892 0.54246 -0.71383
2004-07-23 09:35:14 51°16.243 2°53.388 23.117769 0.110892 0.54246 -0.71383
2004-07-23 09:35:20 51°16.262 2°53.372 23.132059 0.110892 0.542475 -0.74754
2004-07-23 09:35:24 51°16.275 2°53.361 23.127412 0.110892 0.542483 -0.71383
2004-07-23 09:35:30 51°16.294 2°53.345 23.118699 0.110892 0.54249 -0.71383
2004-07-23 09:35:35 51°16.31 2°53.331 23.129968 0.110892 0.542505 -0.71383
2004-07-23 09:35:40 51°16.326 2°53.318 23.133918 0.110892 0.542513 -0.74754
2004-07-23 09:35:46 51°16.344 2°53.3 23.133918 0.110892 0.542513 -0.74754
2004-07-23 09:35:50 51°16.357 2°53.289 23.113586 0.110892 0.54252 -0.74754
2004-07-23 09:35:54 51°16.369 2°53.277 23.108744 0.110892 0.542527 -0.71383
2004-07-23 09:36:00 51°16.388 2°53.259 23.111146 0.110892 0.542535 -0.71383
2004-07-23 09:36:04 51°16.401 2°53.247 23.122223 0.110892 0.542527 -0.71383
2004-07-23 09:36:10 51°16.419 2°53.23 23.105142 0.110892 0.54255 -0.71383
2004-07-23 09:36:14 51°16.432 2°53.218 23.105142 0.110892 0.54255 -0.71383
2004-07-23 09:36:20 51°16.451 2°53.201 23.10398 0.110892 0.54255 -0.74754
2004-07-23 09:36:24 51°16.464 2°53.189 23.10735 0.110892 0.54255 -0.74754
2004-07-23 09:36:30 51°16.483 2°53.173 23.112308 0.110892 0.542565 -0.71383
2004-07-23 09:36:35 51°16.498 2°53.159 23.126638 0.110892 0.54258 -0.71383
2004-07-23 09:36:40 51°16.514 2°53.144 23.133841 0.110892 0.54258 -0.71383
2004-07-23 09:36:44 51°16.527 2°53.133 23.133841 0.110892 0.54258 -0.71383
2004-07-23 09:36:50 51°16.545 2°53.115 23.125476 0.110892 0.542602 -0.74754
2004-07-23 09:36:54 51°16.558 2°53.103 23.125554 0.110892 0.542602 -0.781249
2004-07-23 09:37:00 51°16.577 2°53.085 23.118079 0.110892 0.542609 -0.71383
2004-07-23 09:37:03 51°16.586 2°53.077 23.125941 0.110892 0.542617 -0.74754
2004-07-23 09:37:10 51°16.608 2°53.056 23.100803 0.110892 0.542624 -0.74754
2004-07-23 09:37:14 51°16.62 2°53.045 23.100803 0.110892 0.542624 -0.74754
2004-07-23 09:37:20 51°16.639 2°53.028 23.114361 0.110892 0.542632 -0.74754
2004-07-23 09:37:24 51°16.652 2°53.017 23.118427 0.110892 0.542639 -0.71383
2004-07-23 09:37:30 51°16.671 2°53.001 23.111688 0.110892 0.542639 -0.71383
2004-07-23 09:37:35 51°16.687 2°52.987 23.121758 0.110892 0.542662 -0.74754
2004-07-23 09:37:40 51°16.703 2°52.973 23.135738 0.110788 0.542148 -0.74754
2004-07-23 09:37:44 51°16.715 2°52.962 23.135738 0.110788 0.542148 -0.74754
2004-07-23 09:37:50 51°16.734 2°52.945 23.131285 0.110892 0.542676 -0.74754
2004-07-23 09:37:54 51°16.747 2°52.934 23.115406 0.110892 0.542691 -0.74754
2004-07-23 09:38:00 51°16.766 2°52.918 23.125863 0.110788 0.54217 -0.71383
2004-07-23 09:38:04 51°16.778 2°52.907 23.117111 0.110892 0.542706 -0.71383
2004-07-23 09:38:10 51°16.797 2°52.891 23.126406 0.110788 0.542177 -0.74754
2004-07-23 09:38:14 51°16.81 2°52.881 23.126406 0.110788 0.542177 -0.74754
2004-07-23 09:38:18 51°16.822 2°52.871 23.119163 0.110788 0.542185 -0.74754
2004-07-23 09:38:24 51°16.841 2°52.855 23.117537 0.110788 0.542185 -0.74754
2004-07-23 09:38:30 51°16.859 2°52.84 23.116723 0.110788 0.5422 -0.71383
2004-07-23 09:38:35 51°16.875 2°52.828 23.124856 0.110892 0.542744 -0.74754
2004-07-23 09:38:40 51°16.89 2°52.815 23.119125 0.110788 0.54223 -0.74754
2004-07-23 09:38:46 51°16.909 2°52.8 23.119125 0.110788 0.54223 -0.74754
2004-07-23 09:38:50 51°16.922 2°52.79 23.099796 0.110788 0.542237 -0.71383
2004-07-23 09:38:54 51°16.935 2°52.78 23.118505 0.110788 0.542245 -0.74754
2004-07-23 09:39:00 51°16.954 2°52.765 23.127335 0.110788 0.542252 -0.74754
2004-07-23 09:39:04 51°16.967 2°52.755 23.136628 0.110788 0.542259 -0.71383
2004-07-23 09:39:11 51°16.989 2°52.738 23.138642 0.110788 0.542267 -0.71383
2004-07-23 09:39:15 51°17.002 2°52.728 23.138642 0.110788 0.542267 -0.71383
2004-07-23 09:39:20 51°17.018 2°52.714 23.142436 0.110788 0.542282 -0.74754
2004-07-23 09:39:24 51°17.031 2°52.703 23.180408 0.110788 0.542289 -0.71383
2004-07-23 09:39:30 51°17.05 2°52.686 23.144024 0.110788 0.542297 -0.71383
2004-07-23 09:39:35 51°17.065 2°52.671 23.150992 0.110788 0.542312 -0.71383
2004-07-23 09:39:40 51°17.081 2°52.656 23.13841 0.110788 0.542319 -0.71383
2004-07-23 09:39:46 51°17.1 2°52.639 23.13841 0.110788 0.542319 -0.71383
2004-07-23 09:39:50 51°17.112 2°52.627 23.119667 0.110788 0.542326 -0.74754
2004-07-23 09:39:55 51°17.128 2°52.613 23.11316 0.110788 0.542334 -0.71383
2004-07-23 09:40:00 51°17.144 2°52.6 23.103205 0.110788 0.542341 -0.74754
2004-07-23 09:40:04 51°17.156 2°52.59 23.141043 0.110788 0.542349 -0.74754
2004-07-23 09:40:10 51°17.175 2°52.575 23.117072 0.110788 0.542356 -0.71383
2004-07-23 09:40:14 51°17.188 2°52.565 23.117072 0.110788 0.542356 -0.71383
2004-07-23 09:40:20 51°17.208 2°52.55 23.143211 0.110788 0.542364 -0.71383
2004-07-23 09:40:26 51°17.227 2°52.534 23.146076 0.110788 0.542379 -0.71383
2004-07-23 09:40:30 51°17.239 2°52.523 23.15436 0.110788 0.542386 -0.74754
2004-07-23 09:40:35 51°17.255 2°52.509 23.162296 0.110788 0.542409 -0.74754
2004-07-23 09:40:40 51°17.271 2°52.494 23.156102 0.110788 0.542409 -0.74754
2004-07-23 09:40:46 51°17.289 2°52.476 23.156102 0.110788 0.542409 -0.74754
2004-07-23 09:40:50 51°17.301 2°52.464 23.154593 0.110788 0.542423 -0.71383
2004-07-23 09:40:54 51°17.313 2°52.449 23.230736 0.110788 0.542438 -0.71383
2004-07-23 09:41:00 51°17.328 2°52.425 23.236459 0.110788 0.542453 -0.74754
2004-07-23 09:41:04 51°17.338 2°52.408 23.246009 0.110788 0.542491 -0.74754
2004-07-23 09:41:10 51°17.351 2°52.38 23.150489 0.110788 0.542498 -0.74754
2004-07-23 09:41:14 51°17.359 2°52.36 23.150489 0.110788 0.542498 -0.74754
2004-07-23 09:41:20 51°17.371 2°52.331 23.159122 0.110788 0.542498 -0.71383
2004-07-23 09:41:24 51°17.379 2°52.31 23.155057 0.110788 0.542498 -0.71383
2004-07-23 09:41:30 51°17.39 2°52.28 23.143327 0.110788 0.542491 -0.71383
2004-07-23 09:41:34 51°17.397 2°52.259 23.140113 0.110788 0.542483 -0.74754
2004-07-23 09:41:40 51°17.408 2°52.228 23.121022 0.110788 0.542498 -0.71383
2004-07-23 09:41:44 51°17.415 2°52.207 23.121022 0.110788 0.542498 -0.71383
2004-07-23 09:41:50 51°17.426 2°52.176 23.1211 0.110788 0.542498 -0.74754
2004-07-23 09:41:55 51°17.436 2°52.15 23.118931 0.110788 0.542505 -0.74754
2004-07-23 09:42:00 51°17.445 2°52.125 23.114864 0.110788 0.542535 -0.74754
2004-07-23 09:42:04 51°17.453 2°52.104 23.140578 0.110788 0.542535 -0.71383
2004-07-23 09:42:10 51°17.464 2°52.073 23.173829 0.110788 0.54255 -0.74754
2004-07-23 09:42:14 51°17.471 2°52.052 23.173829 0.110788 0.54255 -0.74754
2004-07-23 09:42:20 51°17.48 2°52.019 23.175532 0.110788 0.542573 -0.71383
2004-07-23 09:42:24 51°17.486 2°51.997 23.159044 0.110788 0.54258 -0.71383
2004-07-23 09:42:30 51°17.494 2°51.964 23.176461 0.110788 0.54258 -0.71383
2004-07-23 09:42:35 51°17.501 2°51.936 23.148592 0.110684 0.542066 -0.74754
2004-07-23 09:42:40 51°17.507 2°51.907 23.155173 0.110788 0.542595 -0.74754
2004-07-23 09:42:46 51°17.515 2°51.873 23.155173 0.110788 0.542595 -0.74754
2004-07-23 09:42:50 51°17.52 2°51.85 23.1405 0.110788 0.542602 -0.74754
2004-07-23 09:42:55 51°17.526 2°51.822 23.134538 0.110684 0.542081 -0.71383
2004-07-23 09:43:00 51°17.532 2°51.794 23.12141 0.110788 0.542617 -0.71383
2004-07-23 09:43:04 51°17.538 2°51.771 23.125166 0.110788 0.542632 -0.74754
2004-07-23 09:43:10 51°17.546 2°51.738 23.139804 0.110684 0.542118 -0.74754
2004-07-23 09:43:15 51°17.553 2°51.71 23.139804 0.110684 0.542118 -0.74754
2004-07-23 09:43:20 51°17.56 2°51.683 23.137558 0.110684 0.542125 -0.74754
2004-07-23 09:43:24 51°17.566 2°51.66 23.149908 0.110684 0.54214 -0.71383
2004-07-23 09:43:30 51°17.575 2°51.627 23.157651 0.110684 0.542148 -0.74754
2004-07-23 09:43:35 51°17.582 2°51.6 23.177932 0.110684 0.542163 -0.781249
2004-07-23 09:43:40 51°17.588 2°51.572 23.15467 0.110684 0.54217 -0.71383
2004-07-23 09:43:44 51°17.594 2°51.549 23.15467 0.110684 0.54217 -0.71383
2004-07-23 09:43:51 51°17.603 2°51.51 23.14805 0.110684 0.542178 -0.74754
2004-07-23 09:43:55 51°17.608 2°51.488 23.191011 0.110684 0.5422 -0.74754
2004-07-23 09:44:00 51°17.614 2°51.46 23.142204 0.110684 0.5422 -0.71383
2004-07-23 09:44:05 51°17.622 2°51.432 23.143211 0.110684 0.542207 -0.74754
2004-07-23 09:44:10 51°17.629 2°51.404 23.153276 0.110684 0.54223 -0.74754
2004-07-23 09:44:14 51°17.634 2°51.382 23.153276 0.110684 0.54223 -0.74754
2004-07-23 09:44:20 51°17.644 2°51.347 23.119822 0.110684 0.542245 -0.71383
2004-07-23 09:44:25 51°17.651 2°51.319 23.137248 0.110684 0.542267 -0.781249
2004-07-23 09:44:30 51°17.66 2°51.29 23.135622 0.110684 0.542282 -0.71383
2004-07-23 09:44:35 51°17.669 2°51.261 23.170811 0.110684 0.54229 -0.74754
2004-07-23 09:44:40 51°17.677 2°51.233 23.178551 0.110684 0.542297 -0.71383
2004-07-23 09:44:46 51°17.685 2°51.199 23.178551 0.110684 0.542297 -0.71383
2004-07-23 09:44:50 51°17.69 2°51.176 23.177932 0.110684 0.542312 -0.74754
2004-07-23 09:44:54 51°17.695 2°51.153 23.182111 0.110684 0.542319 -0.74754
2004-07-23 09:45:00 51°17.704 2°51.116 23.171198 0.110684 0.542334 -0.71383
2004-07-23 09:45:04 51°17.709 2°51.093 23.158812 0.110684 0.542342 -0.71383
2004-07-23 09:45:10 51°17.716 2°51.058 23.176461 0.110684 0.542349 -0.74754
2004-07-23 09:45:15 51°17.722 2°51.029 23.176461 0.110684 0.542349 -0.74754
2004-07-23 09:45:20 51°17.728 2°51 23.142901 0.110684 0.542364 -0.71383
2004-07-23 09:45:24 51°17.732 2°50.977 23.128032 0.110684 0.542379 -0.74754
2004-07-23 09:45:30 51°17.739 2°50.942 23.136396 0.110684 0.542387 -0.74754
2004-07-23 09:45:34 51°17.744 2°50.92 23.130046 0.110684 0.542402 -0.71383
2004-07-23 09:45:40 51°17.752 2°50.885 23.143675 0.110684 0.542424 -0.74754
2004-07-23 09:45:44 51°17.757 2°50.863 23.143675 0.110684 0.542424 -0.74754
2004-07-23 09:45:50 51°17.765 2°50.829 23.152618 0.110684 0.542431 -0.74754
2004-07-23 09:45:55 51°17.771 2°50.801 23.174603 0.110684 0.542439 -0.71383
2004-07-23 09:46:00 51°17.778 2°50.772 23.19987 0.110684 0.542461 -0.74754
2004-07-23 09:46:06 51°17.786 2°50.738 23.168566 0.110684 0.542469 -0.71383
2004-07-23 09:46:11 51°17.793 2°50.709 23.170733 0.110684 0.542476 -0.74754
2004-07-23 09:46:15 51°17.798 2°50.686 23.170733 0.110684 0.542476 -0.74754
2004-07-23 09:46:20 51°17.804 2°50.657 23.173365 0.110684 0.542484 -0.74754
2004-07-23 09:46:24 51°17.809 2°50.633 23.167405 0.110684 0.542499 -0.71383
2004-07-23 09:46:30 51°17.817 2°50.598 23.153857 0.110684 0.542514 -0.71383
2004-07-23 09:46:35 51°17.823 2°50.569 23.173288 0.11058 0.541999 -0.74754
2004-07-23 09:46:40 51°17.829 2°50.54 23.16516 0.11058 0.542014 -0.71383
2004-07-23 09:46:44 51°17.834 2°50.517 23.16516 0.11058 0.542014 -0.71383
2004-07-23 09:46:50 51°17.842 2°50.481 23.153509 0.11058 0.542036 -0.74754
2004-07-23 09:46:55 51°17.848 2°50.453 23.168102 0.11058 0.542051 -0.74754
2004-07-23 09:47:00 51°17.854 2°50.424 23.163612 0.11058 0.542066 -0.74754
2004-07-23 09:47:04 51°17.859 2°50.401 23.175842 0.11058 0.542081 -0.74754
2004-07-23 09:47:10 51°17.866 2°50.366 23.183194 0.11058 0.542081 -0.71383
2004-07-23 09:47:15 51°17.872 2°50.338 23.183194 0.11058 0.542081 -0.71383
2004-07-23 09:47:20 51°17.878 2°50.309 23.162451 0.11058 0.542096 -0.71383
2004-07-23 09:47:24 51°17.883 2°50.286 23.177545 0.11058 0.542111 -0.74754
2004-07-23 09:47:30 51°17.891 2°50.251 23.177622 0.11058 0.542118 -0.781249
2004-07-23 09:47:34 51°17.896 2°50.228 23.163302 0.11058 0.542133 -0.74754
2004-07-23 09:47:40 51°17.903 2°50.193 23.176925 0.11058 0.542148 -0.74754
2004-07-23 09:47:46 51°17.911 2°50.159 23.176925 0.11058 0.542148 -0.74754
2004-07-23 09:47:50 51°17.916 2°50.136 23.209387 0.11058 0.542171 -0.74754
2004-07-23 09:47:55 51°17.922 2°50.107 23.171507 0.11058 0.542178 -0.74754
2004-07-23 09:48:00 51°17.928 2°50.078 23.182575 0.11058 0.5422 -0.680121
2004-07-23 09:48:05 51°17.934 2°50.049 23.16516 0.11058 0.542215 -0.71383
2004-07-23 09:48:10 51°17.941 2°50.02 23.169572 0.11058 0.54223 -0.71383
2004-07-23 09:48:15 51°17.947 2°49.991 23.169572 0.11058 0.54223 -0.71383
2004-07-23 09:48:20 51°17.953 2°49.962 23.161444 0.11058 0.542245 -0.74754
2004-07-23 09:48:24 51°17.958 2°49.939 23.181724 0.11058 0.542253 -0.74754
2004-07-23 09:48:28 51°17.963 2°49.916 23.189231 0.11058 0.542268 -0.71383
2004-07-23 09:48:35 51°17.971 2°49.876 23.17561 0.11058 0.542283 -0.74754
2004-07-23 09:48:40 51°17.977 2°49.847 23.176306 0.11058 0.542298 -0.74754
2004-07-23 09:48:44 51°17.982 2°49.824 23.176306 0.11058 0.542298 -0.74754
2004-07-23 09:48:50 51°17.99 2°49.789 23.18095 0.11058 0.542305 -0.781249
2004-07-23 09:48:54 51°17.995 2°49.766 23.189618 0.11058 0.54232 -0.74754
2004-07-23 09:49:00 51°18.002 2°49.731 23.188882 0.11058 0.542342 -0.74754
2004-07-23 09:49:06 51°18.01 2°49.697 23.170579 0.11058 0.54235 -0.74754
2004-07-23 09:49:10 51°18.015 2°49.674 23.183736 0.11058 0.542372 -0.74754
2004-07-23 09:49:15 51°18.021 2°49.645 23.183736 0.11058 0.542372 -0.74754
2004-07-23 09:49:20 51°18.027 2°49.616 23.19163 0.110476 0.54185 -0.74754
2004-07-23 09:49:25 51°18.033 2°49.588 23.183891 0.110476 0.541872 -0.71383
2004-07-23 09:49:30 51°18.04 2°49.559 23.195305 0.110476 0.54188 -0.71383
2004-07-23 09:49:35 51°18.046 2°49.53 23.194454 0.110476 0.541895 -0.680121
2004-07-23 09:49:40 51°18.052 2°49.501 23.175842 0.110476 0.541909 -0.71383
2004-07-23 09:49:46 51°18.059 2°49.466 23.175842 0.110476 0.541909 -0.71383
2004-07-23 09:49:50 51°18.064 2°49.443 23.192906 0.110476 0.541924 -0.781249
2004-07-23 09:49:55 51°18.07 2°49.414 23.178706 0.110476 0.541939 -0.74754
2004-07-23 09:50:00 51°18.077 2°49.385 23.151999 0.110476 0.541954 -0.71383
2004-07-23 09:50:04 51°18.082 2°49.362 23.183968 0.110476 0.541962 -0.74754
2004-07-23 09:50:11 51°18.091 2°49.322 23.189966 0.110476 0.541984 -0.71383
2004-07-23 09:50:15 51°18.097 2°49.299 23.189966 0.110476 0.541984 -0.71383
2004-07-23 09:50:20 51°18.103 2°49.27 23.1842 0.110476 0.541999 -0.71383
2004-07-23 09:50:25 51°18.11 2°49.241 23.191359 0.110476 0.542007 -0.74754
2004-07-23 09:50:30 51°18.117 2°49.212 23.200644 0.110476 0.542022 -0.71383
2004-07-23 09:50:35 51°18.124 2°49.184 23.172901 0.110476 0.542036 -0.71383
2004-07-23 09:50:40 51°18.131 2°49.155 23.201108 0.110476 0.542051 -0.74754
2004-07-23 09:50:46 51°18.139 2°49.121 23.201108 0.110476 0.542051 -0.74754
2004-07-23 09:50:50 51°18.144 2°49.097 23.206524 0.110476 0.542074 -0.71383
2004-07-23 09:50:55 51°18.151 2°49.068 23.195847 0.110476 0.542081 -0.74754
2004-07-23 09:51:00 51°18.158 2°49.04 23.204358 0.110476 0.542096 -0.71383
2004-07-23 09:51:04 51°18.163 2°49.017 23.19399 0.110476 0.542111 -0.74754
2004-07-23 09:51:08 51°18.168 2°48.994 23.204203 0.110476 0.542126 -0.74754
2004-07-23 09:51:15 51°18.177 2°48.955 23.204203 0.110476 0.542126 -0.74754
2004-07-23 09:51:20 51°18.183 2°48.927 23.207917 0.110476 0.542134 -0.680121
2004-07-23 09:51:25 51°18.19 2°48.899 23.200257 0.110476 0.542149 -0.74754
2004-07-23 09:51:30 51°18.197 2°48.87 23.200721 0.110476 0.542171 -0.74754
2004-07-23 09:51:35 51°18.204 2°48.842 23.219211 0.110476 0.542186 -0.71383
2004-07-23 09:51:40 51°18.211 2°48.813 23.200412 0.110476 0.542193 -0.71383
2004-07-23 09:51:44 51°18.217 2°48.79 23.200412 0.110476 0.542193 -0.71383
2004-07-23 09:51:51 51°18.227 2°48.75 23.218128 0.110476 0.542216 -0.74754
2004-07-23 09:51:55 51°18.232 2°48.727 23.204977 0.110476 0.542231 -0.74754
2004-07-23 09:52:00 51°18.239 2°48.698 23.220526 0.110476 0.542246 -0.74754
2004-07-23 09:52:04 51°18.244 2°48.675 23.209464 0.110476 0.542261 -0.71383
2004-07-23 09:52:10 51°18.252 2°48.64 23.224935 0.110476 0.542276 -0.74754
2004-07-23 09:52:15 51°18.258 2°48.611 23.224935 0.110476 0.542276 -0.74754
2004-07-23 09:52:20 51°18.265 2°48.582 23.204126 0.110372 0.541768 -0.71383
2004-07-23 09:52:23 51°18.268 2°48.564 23.216581 0.110476 0.542306 -0.71383
2004-07-23 09:52:30 51°18.277 2°48.523 23.206292 0.110476 0.542321 -0.71383
2004-07-23 09:52:35 51°18.284 2°48.493 23.203043 0.110476 0.542336 -0.74754
2004-07-23 09:52:40 51°18.291 2°48.463 23.195383 0.110372 0.54182 -0.71383
2004-07-23 09:52:44 51°18.297 2°48.44 23.195383 0.110372 0.54182 -0.71383
2004-07-23 09:52:50 51°18.305 2°48.406 23.211166 0.110372 0.541835 -0.74754
2004-07-23 09:52:55 51°18.312 2°48.378 23.214492 0.110372 0.541843 -0.71383
2004-07-23 09:53:00 51°18.318 2°48.349 23.205828 0.110372 0.541872 -0.74754
2004-07-23 09:53:06 51°18.327 2°48.315 23.221068 0.110372 0.54188 -0.71383
2004-07-23 09:53:10 51°18.333 2°48.292 23.224394 0.110372 0.541902 -0.74754
2004-07-23 09:53:15 51°18.34 2°48.263 23.224394 0.110372 0.541902 -0.74754
2004-07-23 09:53:19 51°18.345 2°48.24 23.20134 0.110372 0.54191 -0.71383
2004-07-23 09:53:24 51°18.352 2°48.211 23.229034 0.110372 0.541925 -0.74754
2004-07-23 09:53:30 51°18.36 2°48.175 23.25838 0.110372 0.541947 -0.71383
2004-07-23 09:53:35 51°18.366 2°48.145 23.248715 0.110372 0.541962 -0.71383
2004-07-23 09:53:40 51°18.372 2°48.114 23.225244 0.110372 0.541985 -0.74754
2004-07-23 09:53:44 51°18.376 2°48.09 23.225244 0.110372 0.541985 -0.74754
2004-07-23 09:53:50 51°18.382 2°48.054 23.244269 0.110372 0.542 -0.74754
2004-07-23 09:53:54 51°18.385 2°48.03 23.211553 0.110372 0.542015 -0.680121
2004-07-23 09:54:00 51°18.391 2°47.994 23.219288 0.110372 0.542037 -0.71383
2004-07-23 09:54:06 51°18.397 2°47.957 23.220681 0.110372 0.542037 -0.71383
2004-07-23 09:54:11 51°18.402 2°47.927 23.228725 0.110372 0.542059 -0.74754
2004-07-23 09:54:14 51°18.405 2°47.908 23.228725 0.110372 0.542059 -0.74754
2004-07-23 09:54:19 51°18.409 2°47.878 23.213564 0.110372 0.542067 -0.71383
2004-07-23 09:54:25 51°18.415 2°47.842 23.215343 0.110372 0.542082 -0.74754
2004-07-23 09:54:30 51°18.42 2°47.812 23.203816 0.110372 0.542089 -0.71383
2004-07-23 09:54:35 51°18.424 2°47.782 23.210392 0.110372 0.542112 -0.74754
2004-07-23 09:54:40 51°18.429 2°47.753 23.226482 0.110372 0.542127 -0.74754
2004-07-23 09:54:46 51°18.435 2°47.717 23.226482 0.110372 0.542127 -0.74754
2004-07-23 09:54:50 51°18.439 2°47.693 23.216117 0.110372 0.542142 -0.71383
2004-07-23 09:54:54 51°18.443 2°47.669 23.232824 0.110372 0.542157 -0.74754
2004-07-23 09:55:00 51°18.449 2°47.634 23.214492 0.110372 0.542172 -0.71383
2004-07-23 09:55:04 51°18.452 2°47.61 23.229034 0.110372 0.542187 -0.74754
2004-07-23 09:55:10 51°18.458 2°47.574 23.219753 0.110372 0.542202 -0.74754
2004-07-23 09:55:15 51°18.463 2°47.544 23.219753 0.110372 0.542202 -0.74754
2004-07-23 09:55:20 51°18.468 2°47.514 23.212791 0.110372 0.542217 -0.71383
2004-07-23 09:55:24 51°18.472 2°47.49 23.233056 0.110372 0.542239 -0.74754
2004-07-23 09:55:30 51°18.477 2°47.454 23.236381 0.110372 0.542254 -0.71383
2004-07-23 09:55:34 51°18.48 2°47.429 23.22478 0.110372 0.542269 -0.74754
2004-07-23 09:55:40 51°18.486 2°47.393 23.222924 0.110268 0.541753 -0.71383
2004-07-23 09:55:44 51°18.49 2°47.369 23.222924 0.110268 0.541753 -0.71383
2004-07-23 09:55:50 51°18.496 2°47.332 23.225708 0.110268 0.541776 -0.680121
2004-07-23 09:55:55 51°18.501 2°47.302 23.222924 0.110372 0.542314 -0.74754
2004-07-23 09:56:00 51°18.506 2°47.272 23.219134 0.110268 0.541791 -0.74754
2004-07-23 09:56:04 51°18.509 2°47.248 23.238895 0.110372 0.542337 -0.71383
2004-07-23 09:56:10 51°18.515 2°47.213 23.22215 0.110268 0.541828 -0.71383
2004-07-23 09:56:15 51°18.519 2°47.183 23.22215 0.110268 0.541828 -0.71383
2004-07-23 09:56:20 51°18.524 2°47.153 23.232592 0.110268 0.541836 -0.74754
2004-07-23 09:56:24 51°18.527 2°47.129 23.240944 0.110268 0.541858 -0.71383
2004-07-23 09:56:31 51°18.533 2°47.087 23.291886 0.110268 0.54188 -0.74754
2004-07-23 09:56:35 51°18.536 2°47.062 23.233984 0.110268 0.541888 -0.71383
2004-07-23 09:56:40 51°18.539 2°47.032 23.235685 0.110268 0.54191 -0.71383
2004-07-23 09:56:44 51°18.542 2°47.007 23.235685 0.110268 0.54191 -0.71383
2004-07-23 09:56:50 51°18.548 2°46.971 23.225786 0.110268 0.541925 -0.71383
2004-07-23 09:56:54 51°18.551 2°46.947 23.242645 0.110268 0.54194 -0.74754
2004-07-23 09:57:00 51°18.556 2°46.911 23.245931 0.110268 0.541948 -0.74754
2004-07-23 09:57:04 51°18.56 2°46.886 23.242104 0.110268 0.541963 -0.71383
2004-07-23 09:57:10 51°18.565 2°46.85 23.235763 0.110268 0.541978 -0.71383
2004-07-23 09:57:14 51°18.569 2°46.826 23.235763 0.110268 0.541978 -0.71383
2004-07-23 09:57:18 51°18.573 2°46.802 23.230736 0.110268 0.541993 -0.74754
2004-07-23 09:57:26 51°18.581 2°46.754 23.229576 0.110268 0.542008 -0.74754
2004-07-23 09:57:30 51°18.585 2°46.73 23.250339 0.110268 0.54203 -0.74754
2004-07-23 09:57:34 51°18.589 2°46.707 23.228338 0.110268 0.542038 -0.74754
2004-07-23 09:57:40 51°18.596 2°46.671 23.2503 0.110268 0.542053 -0.74754
2004-07-23 09:57:44 51°18.6 2°46.647 23.2503 0.110268 0.542053 -0.74754
2004-07-23 09:57:50 51°18.607 2°46.611 23.240093 0.110268 0.542075 -0.74754
2004-07-23 09:57:55 51°18.613 2°46.582 23.25521 0.110268 0.54209 -0.74754
2004-07-23 09:58:00 51°18.618 2°46.552 23.264332 0.110268 0.542105 -0.74754
2004-07-23 09:58:04 51°18.623 2°46.528 23.2549 0.110268 0.542113 -0.74754
2004-07-23 09:58:10 51°18.63 2°46.493 23.233443 0.110268 0.542128 -0.74754
2004-07-23 09:58:14 51°18.634 2°46.469 23.233443 0.110268 0.542128 -0.74754
2004-07-23 09:58:20 51°18.641 2°46.434 23.261008 0.110268 0.54215 -0.71383
2004-07-23 09:58:26 51°18.648 2°46.398 23.2399 0.110268 0.542165 -0.71383
2004-07-23 09:58:30 51°18.653 2°46.374 23.255828 0.110268 0.542188 -0.74754
2004-07-23 09:58:34 51°18.657 2°46.35 23.268197 0.110268 0.542203 -0.74754
2004-07-23 09:58:40 51°18.664 2°46.314 23.24512 0.110268 0.542218 -0.71383
2004-07-23 09:58:44 51°18.668 2°46.289 23.24512 0.110268 0.542218 -0.71383
2004-07-23 09:58:51 51°18.675 2°46.247 23.263173 0.110268 0.542233 -0.74754
2004-07-23 09:58:55 51°18.68 2°46.223 23.226637 0.110268 0.54224 -0.71383
2004-07-23 09:59:00 51°18.685 2°46.193 23.24829 0.110268 0.542255 -0.74754
2004-07-23 09:59:04 51°18.69 2°46.169 23.255171 0.110268 0.54227 -0.71383
2004-07-23 09:59:10 51°18.697 2°46.133 23.240867 0.110268 0.542285 -0.680121
2004-07-23 09:59:14 51°18.701 2°46.109 23.240867 0.110268 0.542285 -0.680121
2004-07-23 09:59:20 51°18.708 2°46.073 23.246627 0.110268 0.5423 -0.74754
2004-07-23 09:59:24 51°18.713 2°46.049 23.260699 0.110164 0.541784 -0.71383
2004-07-23 09:59:30 51°18.719 2°46.014 23.255674 0.110164 0.541806 -0.680121
2004-07-23 09:59:35 51°18.725 2°45.984 23.26526 0.110164 0.541814 -0.71383
2004-07-23 09:59:40 51°18.731 2°45.954 23.250725 0.110164 0.541836 -0.71383
2004-07-23 09:59:44 51°18.735 2°45.93 23.250725 0.110164 0.541836 -0.71383
2004-07-23 09:59:50 51°18.741 2°45.893 23.26526 0.110164 0.541859 -0.74754
2004-07-23 09:59:55 51°18.747 2°45.863 23.245661 0.110164 0.541866 -0.71383
2004-07-23 10:00:00 51°18.752 2°45.833 23.28068 0.110164 0.541889 -0.71383
2004-07-23 10:00:04 51°18.756 2°45.809 23.250107 0.110164 0.541896 -0.74754
2004-07-23 10:00:10 51°18.763 2°45.773 23.2532 0.110164 0.541911 -0.71383
2004-07-23 10:00:14 51°18.767 2°45.749 23.2532 0.110164 0.541911 -0.71383
2004-07-23 10:00:20 51°18.774 2°45.712 23.272449 0.110164 0.541934 -0.71383
2004-07-23 10:00:24 51°18.779 2°45.688 23.25289 0.110164 0.541949 -0.74754
2004-07-23 10:00:30 51°18.785 2°45.652 23.282458 0.110164 0.541964 -0.74754
2004-07-23 10:00:35 51°18.791 2°45.622 23.26727 0.110164 0.541979 -0.71383
2004-07-23 10:00:40 51°18.796 2°45.591 23.248058 0.110164 0.541994 -0.74754
2004-07-23 10:00:43 51°18.799 2°45.573 23.248058 0.110164 0.541994 -0.74754
2004-07-23 10:00:50 51°18.807 2°45.531 23.278787 0.110164 0.542009 -0.71383
2004-07-23 10:00:54 51°18.811 2°45.507 23.264719 0.110164 0.542031 -0.71383
2004-07-23 10:01:00 51°18.818 2°45.471 23.270284 0.110164 0.542046 -0.71383
2004-07-23 10:01:05 51°18.824 2°45.441 23.269898 0.110164 0.542061 -0.71383
2004-07-23 10:01:11 51°18.831 2°45.404 23.266574 0.110164 0.542069 -0.71383
2004-07-23 10:01:15 51°18.836 2°45.381 23.266574 0.110164 0.542069 -0.71383
2004-07-23 10:01:20 51°18.841 2°45.351 23.26897 0.110164 0.542091 -0.71383
2004-07-23 10:01:24 51°18.846 2°45.327 23.275966 0.110164 0.542106 -0.74754
2004-07-23 10:01:30 51°18.853 2°45.291 23.277086 0.110164 0.542129 -0.74754
2004-07-23 10:01:35 51°18.86 2°45.261 23.280062 0.110164 0.542144 -0.71383
2004-07-23 10:01:40 51°18.866 2°45.231 23.271985 0.110164 0.542159 -0.71383
2004-07-23 10:01:46 51°18.873 2°45.195 23.271985 0.110164 0.542159 -0.71383
2004-07-23 10:01:50 51°18.878 2°45.171 23.285936 0.110164 0.542174 -0.71383
2004-07-23 10:01:55 51°18.884 2°45.141 23.27755 0.110164 0.542196 -0.74754
2004-07-23 10:02:00 51°18.89 2°45.111 23.289259 0.110164 0.542211 -0.74754
2004-07-23 10:02:05 51°18.896 2°45.081 23.288486 0.110164 0.542219 -0.74754
2004-07-23 10:02:09 51°18.901 2°45.057 23.282806 0.11006 0.54171 -0.74754
2004-07-23 10:02:15 51°18.908 2°45.021 23.282806 0.11006 0.54171 -0.74754
2004-07-23 10:02:20 51°18.914 2°44.991 23.307764 0.110164 0.542257 -0.71383
2004-07-23 10:02:25 51°18.92 2°44.961 23.272294 0.11006 0.541732 -0.71383
2004-07-23 10:02:31 51°18.928 2°44.925 23.277202 0.11006 0.541755 -0.74754
2004-07-23 10:02:34 51°18.932 2°44.907 23.316416 0.11006 0.54177 -0.71383
2004-07-23 10:02:40 51°18.939 2°44.871 23.303708 0.11006 0.541785 -0.74754
2004-07-23 10:02:45 51°18.945 2°44.841 23.303708 0.11006 0.541785 -0.74754
2004-07-23 10:02:50 51°18.951 2°44.811 23.28949 0.11006 0.5418 -0.74754
2004-07-23 10:02:55 51°18.957 2°44.781 23.281376 0.11006 0.541822 -0.74754
2004-07-23 10:03:00 51°18.963 2°44.751 23.298222 0.11006 0.541845 -0.74754
2004-07-23 10:03:04 51°18.968 2°44.727 23.291036 0.11006 0.541852 -0.71383
2004-07-23 10:03:10 51°18.975 2°44.691 23.290031 0.11006 0.541867 -0.74754
2004-07-23 10:03:15 51°18.982 2°44.661 23.290031 0.11006 0.541867 -0.74754
2004-07-23 10:03:20 51°18.988 2°44.631 23.290727 0.11006 0.541882 -0.74754
2004-07-23 10:03:24 51°18.993 2°44.607 23.279289 0.11006 0.541905 -0.71383
2004-07-23 10:03:30 51°19.001 2°44.57 23.287017 0.11006 0.541912 -0.74754
2004-07-23 10:03:34 51°19.006 2°44.545 23.29629 0.11006 0.541935 -0.71383
2004-07-23 10:03:40 51°19.014 2°44.509 23.311395 0.11006 0.54195 -0.74754
2004-07-23 10:03:44 51°19.019 2°44.484 23.311395 0.11006 0.54195 -0.74754
2004-07-23 10:03:50 51°19.026 2°44.447 23.304172 0.11006 0.541965 -0.74754
2004-07-23 10:03:55 51°19.032 2°44.417 23.285317 0.11006 0.541987 -0.74754
2004-07-23 10:04:00 51°19.038 2°44.386 23.305717 0.11006 0.541995 -0.74754
2004-07-23 10:04:04 51°19.043 2°44.362 23.305485 0.11006 0.542017 -0.74754
2004-07-23 10:04:10 51°19.05 2°44.325 23.280371 0.11006 0.542032 -0.74754
2004-07-23 10:04:15 51°19.056 2°44.295 23.280371 0.11006 0.542032 -0.74754
2004-07-23 10:04:20 51°19.062 2°44.266 23.309077 0.11006 0.54204 -0.74754
2004-07-23 10:04:24 51°19.067 2°44.242 23.289413 0.11006 0.542063 -0.74754
2004-07-23 10:04:30 51°19.074 2°44.206 23.294359 0.11006 0.54207 -0.71383
2004-07-23 10:04:35 51°19.08 2°44.177 23.302935 0.11006 0.542093 -0.74754
2004-07-23 10:04:40 51°19.086 2°44.147 23.302008 0.11006 0.542108 -0.74754
2004-07-23 10:04:46 51°19.093 2°44.112 23.302008 0.11006 0.542108 -0.74754
2004-07-23 10:04:50 51°19.098 2°44.088 23.321283 0.109956 0.541598 -0.74754
2004-07-23 10:04:55 51°19.104 2°44.058 23.296522 0.109956 0.541605 -0.74754
2004-07-23 10:05:00 51°19.11 2°44.029 23.307185 0.109956 0.541613 -0.71383
2004-07-23 10:05:05 51°19.116 2°44 23.314408 0.109956 0.541635 -0.71383
2004-07-23 10:05:11 51°19.124 2°43.964 23.316648 0.109956 0.541658 -0.71383
2004-07-23 10:05:15 51°19.128 2°43.941 23.316648 0.109956 0.541658 -0.71383
2004-07-23 10:05:19 51°19.133 2°43.917 23.308035 0.109956 0.541673 -0.74754
2004-07-23 10:05:24 51°19.139 2°43.887 23.310005 0.109956 0.541688 -0.74754
2004-07-23 10:05:30 51°19.146 2°43.852 23.316725 0.109956 0.541703 -0.74754
2004-07-23 10:05:35 51°19.151 2°43.822 23.307957 0.109956 0.541718 -0.71383
2004-07-23 10:05:40 51°19.157 2°43.792 23.300386 0.109956 0.541741 -0.71383
2004-07-23 10:05:46 51°19.164 2°43.756 23.300386 0.109956 0.541741 -0.71383
2004-07-23 10:05:50 51°19.169 2°43.732 23.310314 0.109956 0.541756 -0.74754
2004-07-23 10:05:55 51°19.175 2°43.703 23.303631 0.109956 0.541763 -0.74754
2004-07-23 10:06:00 51°19.18 2°43.673 23.329393 0.109956 0.541778 -0.74754
2004-07-23 10:06:04 51°19.185 2°43.649 23.30139 0.109956 0.541801 -0.74754
2004-07-23 10:06:10 51°19.192 2°43.614 23.316185 0.109956 0.541808 -0.74754
2004-07-23 10:06:15 51°19.197 2°43.584 23.316185 0.109956 0.541808 -0.74754
2004-07-23 10:06:20 51°19.203 2°43.554 23.310314 0.109956 0.541831 -0.74754
2004-07-23 10:06:24 51°19.207 2°43.531 23.316648 0.109956 0.541846 -0.71383
2004-07-23 10:06:30 51°19.214 2°43.495 23.331942 0.109956 0.541861 -0.71383
2004-07-23 10:06:35 51°19.22 2°43.466 23.302317 0.109956 0.541876 -0.71383
2004-07-23 10:06:40 51°19.226 2°43.436 23.332675 0.109956 0.541891 -0.71383
2004-07-23 10:06:45 51°19.232 2°43.406 23.332675 0.109956 0.541891 -0.71383
2004-07-23 10:06:50 51°19.238 2°43.377 23.308614 0.109956 0.541913 -0.71383
2004-07-23 10:06:55 51°19.244 2°43.347 23.330474 0.109956 0.541921 -0.71383
2004-07-23 10:07:00 51°19.249 2°43.317 23.335996 0.109956 0.541944 -0.71383
2004-07-23 10:07:05 51°19.255 2°43.288 23.307107 0.109956 0.541959 -0.71383
2004-07-23 10:07:11 51°19.262 2°43.252 23.326304 0.109956 0.541981 -0.71383
2004-07-23 10:07:15 51°19.266 2°43.228 23.326304 0.109956 0.541981 -0.71383
2004-07-23 10:07:20 51°19.272 2°43.199 23.3107 0.109852 0.541456 -0.74754
2004-07-23 10:07:25 51°19.277 2°43.169 23.315953 0.109852 0.541471 -0.74754
2004-07-23 10:07:31 51°19.284 2°43.133 23.312631 0.109956 0.542019 -0.74754
2004-07-23 10:07:35 51°19.288 2°43.11 23.314794 0.109852 0.541501 -0.74754
2004-07-23 10:07:40 51°19.294 2°43.08 23.303553 0.109852 0.541524 -0.71383
2004-07-23 10:07:44 51°19.299 2°43.056 23.303553 0.109852 0.541524 -0.71383
2004-07-23 10:07:50 51°19.306 2°43.021 23.326381 0.109852 0.541539 -0.71383
2004-07-23 10:07:55 51°19.312 2°42.991 23.314562 0.109852 0.541546 -0.74754
2004-07-23 10:08:00 51°19.318 2°42.961 23.328003 0.109852 0.541569 -0.74754
2004-07-23 10:08:06 51°19.324 2°42.926 23.334992 0.109852 0.541584 -0.74754
2004-07-23 10:08:10 51°19.329 2°42.902 23.329007 0.109852 0.541606 -0.71383
2004-07-23 10:08:15 51°19.335 2°42.872 23.329007 0.109852 0.541606 -0.71383
2004-07-23 10:08:20 51°19.341 2°42.842 23.321206 0.109852 0.541621 -0.74754
2004-07-23 10:08:24 51°19.345 2°42.819 23.347966 0.109852 0.541644 -0.74754
2004-07-23 10:08:29 51°19.351 2°42.789 23.33422 0.109852 0.541659 -0.71383
2004-07-23 10:08:35 51°19.357 2°42.753 23.331324 0.109852 0.541674 -0.71383
2004-07-23 10:08:40 51°19.363 2°42.723 23.327462 0.109852 0.541682 -0.74754
2004-07-23 10:08:44 51°19.367 2°42.698 23.327462 0.109852 0.541682 -0.74754
2004-07-23 10:08:51 51°19.375 2°42.657 23.321128 0.109852 0.541697 -0.71383
2004-07-23 10:08:54 51°19.378 2°42.639 23.318734 0.109852 0.541719 -0.71383
2004-07-23 10:09:00 51°19.385 2°42.603 23.336614 0.109852 0.541734 -0.74754
2004-07-23 10:09:05 51°19.391 2°42.573 23.320897 0.109852 0.541749 -0.71383
2004-07-23 10:09:10 51°19.396 2°42.543 23.331169 0.109852 0.541764 -0.74754
2004-07-23 10:09:14 51°19.401 2°42.52 23.331169 0.109852 0.541764 -0.74754
2004-07-23 10:09:20 51°19.408 2°42.484 23.341325 0.109852 0.541787 -0.74754
2004-07-23 10:09:24 51°19.413 2°42.461 23.359315 0.109852 0.541794 -0.71383
2004-07-23 10:09:30 51°19.42 2°42.425 23.333718 0.109852 0.541825 -0.74754
2004-07-23 10:09:34 51°19.424 2°42.401 23.340591 0.109852 0.54184 -0.74754
2004-07-23 10:09:40 51°19.431 2°42.366 23.363291 0.109748 0.541314 -0.71383
2004-07-23 10:09:46 51°19.438 2°42.33 23.363291 0.109748 0.541314 -0.71383
2004-07-23 10:09:50 51°19.442 2°42.306 23.316725 0.109748 0.541337 -0.74754
2004-07-23 10:09:55 51°19.448 2°42.276 23.371281 0.109748 0.541352 -0.71383
2004-07-23 10:10:00 51°19.454 2°42.246 23.325686 0.109748 0.541367 -0.71383
2004-07-23 10:10:06 51°19.46 2°42.21 23.349587 0.109748 0.541397 -0.71383
2004-07-23 10:10:10 51°19.465 2°42.187 23.339471 0.109748 0.541404 -0.71383
2004-07-23 10:10:15 51°19.471 2°42.157 23.339471 0.109748 0.541404 -0.71383
2004-07-23 10:10:20 51°19.477 2°42.127 23.321128 0.109748 0.541419 -0.74754
2004-07-23 10:10:24 51°19.481 2°42.103 23.393971 0.109748 0.541442 -0.74754
2004-07-23 10:10:30 51°19.488 2°42.068 23.31688 0.109748 0.541457 -0.74754
2004-07-23 10:10:40 51°19.5 2°42.008 23.330552 0.109748 0.541487 -0.71383
2004-07-23 10:10:44 51°19.504 2°41.984 23.330552 0.109748 0.541487 -0.71383
2004-07-23 10:10:50 51°19.511 2°41.948 23.336382 0.109748 0.54151 -0.71383
2004-07-23 10:10:55 51°19.516 2°41.918 23.346653 0.109748 0.541525 -0.71383
2004-07-23 10:11:00 51°19.523 2°41.888 23.338583 0.109748 0.541532 -0.71383
2004-07-23 10:11:06 51°19.53 2°41.853 23.339317 0.109748 0.541555 -0.71383
2004-07-23 10:11:10 51°19.534 2°41.829 23.35171 0.109748 0.54157 -0.74754
2004-07-23 10:11:14 51°19.539 2°41.805 23.35171 0.109748 0.54157 -0.74754
2004-07-23 10:11:20 51°19.546 2°41.769 23.358698 0.109748 0.541593 -0.71383
2004-07-23 10:11:24 51°19.551 2°41.746 23.343719 0.109748 0.541608 -0.74754
2004-07-23 10:11:31 51°19.559 2°41.704 23.355687 0.109748 0.541623 -0.74754
2004-07-23 10:11:35 51°19.564 2°41.68 23.340861 0.109748 0.541645 -0.71383
2004-07-23 10:11:40 51°19.569 2°41.65 23.356613 0.109748 0.54166 -0.71383
2004-07-23 10:11:44 51°19.574 2°41.626 23.356613 0.109748 0.54166 -0.71383
2004-07-23 10:11:50 51°19.581 2°41.591 23.355069 0.109748 0.541675 -0.71383
2004-07-23 10:11:55 51°19.587 2°41.561 23.337271 0.109644 0.54115 -0.71383
2004-07-23 10:12:00 51°19.593 2°41.531 23.338699 0.109748 0.541705 -0.74754
2004-07-23 10:12:04 51°19.598 2°41.507 23.354992 0.109748 0.541721 -0.71383
2004-07-23 10:12:10 51°19.605 2°41.471 23.359663 0.109644 0.54121 -0.71383
2004-07-23 10:12:14 51°19.611 2°41.447 23.359663 0.109644 0.54121 -0.71383
2004-07-23 10:12:20 51°19.618 2°41.411 23.361284 0.109644 0.541217 -0.74754
2004-07-23 10:12:24 51°19.623 2°41.387 23.377571 0.109644 0.541247 -0.71383
2004-07-23 10:12:30 51°19.63 2°41.351 23.345495 0.109644 0.541255 -0.71383
2004-07-23 10:12:35 51°19.636 2°41.321 23.361361 0.109644 0.541277 -0.71383
2004-07-23 10:12:40 51°19.641 2°41.29 23.359122 0.109644 0.5413 -0.74754
2004-07-23 10:12:46 51°19.648 2°41.254 23.359122 0.109644 0.5413 -0.74754
2004-07-23 10:12:50 51°19.653 2°41.229 23.347425 0.109644 0.541308 -0.71383
2004-07-23 10:12:54 51°19.658 2°41.205 23.355764 0.109644 0.54133 -0.71383
2004-07-23 10:13:00 51°19.665 2°41.169 23.358466 0.109644 0.541338 -0.74754
2004-07-23 10:13:06 51°19.672 2°41.133 23.348583 0.109644 0.541345 -0.71383
2004-07-23 10:13:11 51°19.679 2°41.103 23.367267 0.109644 0.541375 -0.74754
2004-07-23 10:13:15 51°19.684 2°41.079 23.367267 0.109644 0.541375 -0.74754
2004-07-23 10:13:20 51°19.69 2°41.049 23.36221 0.109644 0.54139 -0.71383
2004-07-23 10:13:23 51°19.693 2°41.03 23.383283 0.109644 0.541413 -0.781249
2004-07-23 10:13:32 51°19.704 2°40.976 23.363986 0.109644 0.541436 -0.74754
2004-07-23 10:13:36 51°19.709 2°40.952 23.345726 0.109644 0.541443 -0.71383
2004-07-23 10:13:42 51°19.716 2°40.915 23.375333 0.109644 0.541466 -0.680121
2004-07-23 10:13:48 51°19.723 2°40.879 23.35862 0.109644 0.541473 -0.71383
2004-07-23 10:13:52 51°19.728 2°40.855 23.364063 0.109644 0.541488 -0.680121
2004-07-23 10:13:58 51°19.735 2°40.819 23.370354 0.109644 0.541503 -0.71383
2004-07-23 10:14:03 51°19.741 2°40.789 23.370354 0.109644 0.541503 -0.71383
2004-07-23 10:14:08 51°19.747 2°40.758 23.361979 0.109644 0.541534 -0.74754
2004-07-23 10:14:11 51°19.751 2°40.74 23.389186 0.109644 0.541541 -0.74754
2004-07-23 10:14:18 51°19.759 2°40.698 23.376182 0.10954 0.54103 -0.74754
2004-07-23 10:14:23 51°19.765 2°40.667 23.37186 0.10954 0.541045 -0.71383
2004-07-23 10:14:27 51°19.77 2°40.643 23.366919 0.10954 0.54106 -0.71383
2004-07-23 10:14:30 51°19.774 2°40.625 23.366919 0.10954 0.54106 -0.71383
2004-07-23 10:14:40 51°19.786 2°40.563 23.394125 0.10954 0.541098 -0.74754
2004-07-23 10:14:44 51°19.791 2°40.539 23.394125 0.10954 0.541098 -0.74754
2004-07-23 10:14:50 51°19.798 2°40.502 23.353139 0.10954 0.541113 -0.74754
2004-07-23 10:14:54 51°19.803 2°40.477 23.384595 0.10954 0.541128 -0.71383
2004-07-23 10:15:00 51°19.811 2°40.441 23.389958 0.10954 0.541143 -0.74754
2004-07-23 10:15:06 51°19.818 2°40.404 23.393585 0.10954 0.541158 -0.71383
2004-07-23 10:15:10 51°19.823 2°40.38 23.383514 0.10954 0.541181 -0.71383
2004-07-23 10:15:14 51°19.828 2°40.355 23.383514 0.10954 0.541181 -0.71383
2004-07-23 10:15:20 51°19.835 2°40.319 23.430384 0.10954 0.541203 -0.74754
2004-07-23 10:15:24 51°19.839 2°40.294 23.356999 0.10954 0.541218 -0.71383
2004-07-23 10:15:30 51°19.845 2°40.257 23.379424 0.10954 0.541241 -0.71383
2004-07-23 10:15:34 51°19.85 2°40.233 23.37321 0.10954 0.541256 -0.74754
2004-07-23 10:15:40 51°19.857 2°40.196 23.378034 0.10954 0.541271 -0.71383
2004-07-23 10:15:44 51°19.861 2°40.172 23.378034 0.10954 0.541271 -0.71383
2004-07-23 10:15:50 51°19.868 2°40.135 23.39725 0.10954 0.541286 -0.71383
2004-07-23 10:15:54 51°19.873 2°40.111 23.393392 0.10954 0.541294 -0.74754
2004-07-23 10:16:00 51°19.88 2°40.074 23.367228 0.10954 0.541309 -0.74754
2004-07-23 10:16:04 51°19.884 2°40.05 23.394897 0.10954 0.541339 -0.71383
2004-07-23 10:16:10 51°19.891 2°40.014 23.39725 0.10954 0.541346 -0.71383
2004-07-23 10:16:14 51°19.896 2°39.989 23.39725 0.10954 0.541346 -0.71383
2004-07-23 10:16:18 51°19.901 2°39.965 23.364681 0.10954 0.541369 -0.74754
2004-07-23 10:16:24 51°19.908 2°39.929 23.39752 0.10954 0.541392 -0.74754
2004-07-23 10:16:30 51°19.915 2°39.892 23.397366 0.10954 0.541407 -0.74754
2004-07-23 10:16:34 51°19.919 2°39.868 23.396286 0.109436 0.540888 -0.71383
2004-07-23 10:16:40 51°19.926 2°39.832 23.380427 0.109436 0.540903 -0.71383
2004-07-23 10:16:46 51°19.934 2°39.795 23.380427 0.109436 0.540903 -0.71383
2004-07-23 10:16:50 51°19.938 2°39.771 23.395591 0.109436 0.540918 -0.74754
2004-07-23 10:16:54 51°19.943 2°39.747 23.394357 0.109436 0.540933 -0.74754
2004-07-23 10:17:00 51°19.949 2°39.71 23.39644 0.109436 0.540956 -0.74754
2004-07-23 10:17:04 51°19.954 2°39.686 23.406162 0.109436 0.540971 -0.74754
2004-07-23 10:17:10 51°19.961 2°39.649 23.381199 0.109436 0.540993 -0.74754
2004-07-23 10:17:14 51°19.965 2°39.625 23.381199 0.109436 0.540993 -0.74754
2004-07-23 10:17:20 51°19.972 2°39.588 23.419547 0.109436 0.541008 -0.74754
2004-07-23 10:17:24 51°19.977 2°39.564 23.373905 0.109436 0.541016 -0.71383
2004-07-23 10:17:30 51°19.984 2°39.528 23.422555 0.109436 0.541039 -0.71383
2004-07-23 10:17:34 51°19.989 2°39.504 23.399874 0.109436 0.541054 -0.71383
2004-07-23 10:17:40 51°19.995 2°39.468 23.402111 0.109436 0.541069 -0.71383
2004-07-23 10:17:44 51°20 2°39.443 23.402111 0.109436 0.541069 -0.71383
2004-07-23 10:17:48 51°20.005 2°39.419 23.39536 0.109436 0.541084 -0.71383
2004-07-23 10:17:54 51°20.012 2°39.383 23.404889 0.109436 0.541106 -0.74754
2004-07-23 10:18:00 51°20.019 2°39.347 23.401031 0.109436 0.541114 -0.71383
2004-07-23 10:18:04 51°20.024 2°39.323 23.394588 0.109436 0.541137 -0.74754
2004-07-23 10:18:10 51°20.031 2°39.287 23.389572 0.109436 0.541152 -0.71383
2004-07-23 10:18:14 51°20.036 2°39.263 23.389572 0.109436 0.541152 -0.71383
2004-07-23 10:18:18 51°20.04 2°39.239 23.398601 0.109436 0.541167 -0.74754
2004-07-23 10:18:26 51°20.05 2°39.19 23.394742 0.109436 0.541182 -0.71383
2004-07-23 10:18:30 51°20.054 2°39.166 23.408014 0.109436 0.541205 -0.71383
2004-07-23 10:18:34 51°20.059 2°39.142 23.405506 0.109436 0.541227 -0.74754
2004-07-23 10:18:40 51°20.066 2°39.105 23.407744 0.109436 0.541235 -0.74754
2004-07-23 10:18:44 51°20.07 2°39.081 23.407744 0.109436 0.541235 -0.74754
2004-07-23 10:18:50 51°20.077 2°39.044 23.40296 0.109436 0.541265 -0.71383
2004-07-23 10:18:54 51°20.081 2°39.02 23.41488 0.109436 0.541265 -0.71383
2004-07-23 10:19:00 51°20.088 2°38.984 23.407666 0.109436 0.541288 -0.71383
2004-07-23 10:19:06 51°20.095 2°38.947 23.399565 0.109436 0.54131 -0.71383
2004-07-23 10:19:10 51°20.1 2°38.923 23.422324 0.109332 0.540783 -0.74754
2004-07-23 10:19:14 51°20.104 2°38.899 23.422324 0.109332 0.540783 -0.74754
2004-07-23 10:19:20 51°20.111 2°38.862 23.419624 0.109332 0.540806 -0.71383
2004-07-23 10:19:24 51°20.116 2°38.838 23.406046 0.109332 0.540829 -0.71383
2004-07-23 10:19:30 51°20.123 2°38.802 23.408862 0.109332 0.540844 -0.74754
2004-07-23 10:19:34 51°20.127 2°38.778 23.392273 0.109332 0.540859 -0.71383
2004-07-23 10:19:40 51°20.134 2°38.741 23.419469 0.109332 0.540874 -0.71383
2004-07-23 10:19:44 51°20.138 2°38.717 23.419469 0.109332 0.540874 -0.71383
2004-07-23 10:19:50 51°20.145 2°38.68 23.422632 0.109332 0.540889 -0.74754
2004-07-23 10:19:54 51°20.15 2°38.656 23.414648 0.109332 0.540904 -0.680121
2004-07-23 10:20:00 51°20.157 2°38.62 23.407589 0.109332 0.540919 -0.680121
2004-07-23 10:20:04 51°20.162 2°38.596 23.396787 0.109332 0.540942 -0.71383
2004-07-23 10:20:10 51°20.169 2°38.56 23.404503 0.109332 0.540949 -0.71383
2004-07-23 10:20:14 51°20.173 2°38.536 23.404503 0.109332 0.540949 -0.71383
2004-07-23 10:20:20 51°20.181 2°38.499 23.441913 0.109332 0.540979 -0.74754
2004-07-23 10:20:24 51°20.185 2°38.475 23.436207 0.109332 0.540995 -0.71383
2004-07-23 10:20:30 51°20.193 2°38.439 23.400645 0.109332 0.541002 -0.680121
2004-07-23 10:20:34 51°20.197 2°38.415 23.428301 0.109332 0.541025 -0.71383
2004-07-23 10:20:40 51°20.204 2°38.379 23.430152 0.109332 0.54104 -0.74754
2004-07-23 10:20:44 51°20.209 2°38.354 23.430152 0.109332 0.54104 -0.74754
2004-07-23 10:20:50 51°20.216 2°38.318 23.417695 0.109332 0.541055 -0.74754
2004-07-23 10:20:54 51°20.221 2°38.294 23.433392 0.109332 0.54107 -0.71383
2004-07-23 10:21:00 51°20.228 2°38.257 23.435165 0.109332 0.5411 -0.74754
2004-07-23 10:21:04 51°20.232 2°38.233 23.416422 0.109332 0.541108 -0.74754
2004-07-23 10:21:10 51°20.239 2°38.197 23.423326 0.109332 0.54113 -0.71383
2004-07-23 10:21:14 51°20.244 2°38.173 23.423326 0.109332 0.54113 -0.71383
2004-07-23 10:21:20 51°20.251 2°38.136 23.430846 0.109228 0.540603 -0.71383
2004-07-23 10:21:26 51°20.258 2°38.1 23.421784 0.109228 0.540618 -0.74754
2004-07-23 10:21:30 51°20.263 2°38.076 23.432852 0.109228 0.540633 -0.71383
2004-07-23 10:21:34 51°20.268 2°38.052 23.420627 0.109228 0.540656 -0.71383
2004-07-23 10:21:40 51°20.274 2°38.015 23.432158 0.109228 0.540671 -0.71383
2004-07-23 10:21:44 51°20.279 2°37.991 23.432158 0.109228 0.540671 -0.71383
2004-07-23 10:21:50 51°20.286 2°37.955 23.426026 0.109228 0.540686 -0.74754
2004-07-23 10:21:54 51°20.29 2°37.93 23.455214 0.109228 0.540709 -0.71383
2004-07-23 10:22:00 51°20.297 2°37.894 23.427144 0.109228 0.540716 -0.71383
2004-07-23 10:22:06 51°20.304 2°37.858 23.431926 0.109228 0.540731 -0.74754
2004-07-23 10:22:10 51°20.309 2°37.834 23.433006 0.109228 0.540747 -0.74754
2004-07-23 10:22:14 51°20.314 2°37.81 23.433006 0.109228 0.540747 -0.74754
2004-07-23 10:22:20 51°20.321 2°37.774 23.428224 0.109228 0.540762 -0.71383
2004-07-23 10:22:24 51°20.325 2°37.749 23.423712 0.109228 0.540784 -0.74754
2004-07-23 10:22:28 51°20.33 2°37.725 23.420549 0.109228 0.540792 -0.680121
2004-07-23 10:22:34 51°20.337 2°37.689 23.429458 0.109228 0.540815 -0.71383
2004-07-23 10:22:39 51°20.343 2°37.659 23.416885 0.109228 0.54083 -0.71383
2004-07-23 10:22:46 51°20.351 2°37.617 23.416885 0.109228 0.54083 -0.71383
2004-07-23 10:22:50 51°20.355 2°37.593 23.429073 0.109228 0.540845 -0.71383
2004-07-23 10:22:54 51°20.36 2°37.569 23.436245 0.109228 0.54086 -0.74754
2004-07-23 10:23:00 51°20.367 2°37.532 23.440294 0.109228 0.54089 -0.71383
2004-07-23 10:23:04 51°20.372 2°37.508 23.438443 0.109228 0.54089 -0.74754
2004-07-23 10:23:08 51°20.377 2°37.484 23.428378 0.109228 0.540913 -0.74754
2004-07-23 10:23:20 51°20.392 2°37.413 23.440756 0.109228 0.540928 -0.74754
2004-07-23 10:23:23 51°20.396 2°37.395 23.437903 0.109228 0.540935 -0.71383
2004-07-23 10:23:30 51°20.406 2°37.354 23.432389 0.109228 0.540951 -0.71383
2004-07-23 10:23:34 51°20.411 2°37.33 23.452901 0.109228 0.540973 -0.71383
2004-07-23 10:23:39 51°20.418 2°37.301 23.429767 0.109228 0.540988 -0.74754
2004-07-23 10:23:44 51°20.425 2°37.271 23.429767 0.109228 0.540988 -0.74754
2004-07-23 10:23:50 51°20.433 2°37.236 23.434934 0.109228 0.541003 -0.74754
2004-07-23 10:23:54 51°20.439 2°37.212 23.449123 0.109228 0.541026 -0.71383
2004-07-23 10:23:59 51°20.446 2°37.183 23.446771 0.109124 0.540506 -0.71383
2004-07-23 10:24:03 51°20.451 2°37.159 23.435551 0.109124 0.540529 -0.71383
2004-07-23 10:24:10 51°20.461 2°37.118 23.4337 0.109124 0.540544 -0.74754
2004-07-23 10:24:14 51°20.467 2°37.095 23.4337 0.109124 0.540544 -0.74754
2004-07-23 10:24:19 51°20.476 2°37.067 23.43208 0.109124 0.540551 -0.74754
2004-07-23 10:24:25 51°20.485 2°37.032 23.459262 0.109124 0.540559 -0.71383
2004-07-23 10:24:29 51°20.492 2°37.01 23.435165 0.109124 0.540582 -0.71383
2004-07-23 10:24:34 51°20.501 2°36.982 23.474872 0.109124 0.540597 -0.71383
2004-07-23 10:24:39 51°20.509 2°36.954 23.450125 0.109124 0.540619 -0.74754
2004-07-23 10:24:43 51°20.516 2°36.932 23.450125 0.109124 0.540619 -0.74754
2004-07-23 10:24:49 51°20.527 2°36.899 23.44307 0.109124 0.540634 -0.71383
2004-07-23 10:24:53 51°20.535 2°36.877 23.452593 0.109124 0.54065 -0.71383
2004-07-23 10:24:59 51°20.546 2°36.844 23.450048 0.109124 0.540665 -0.74754
2004-07-23 10:25:03 51°20.553 2°36.822 23.453903 0.109124 0.54068 -0.71383
2004-07-23 10:25:09 51°20.565 2°36.789 23.440525 0.109124 0.540703 -0.71383
2004-07-23 10:25:14 51°20.575 2°36.763 23.440525 0.109124 0.540703 -0.71383
2004-07-23 10:25:20 51°20.587 2°36.731 23.449894 0.109124 0.54071 -0.74754
2004-07-23 10:25:23 51°20.593 2°36.715 23.436708 0.109124 0.540733 -0.71383
2004-07-23 10:25:30 51°20.608 2°36.679 23.466239 0.109124 0.540748 -0.680121
2004-07-23 10:25:34 51°20.616 2°36.658 23.465236 0.109124 0.540763 -0.71383
2004-07-23 10:25:39 51°20.627 2°36.633 23.466932 0.109124 0.540778 -0.71383
2004-07-23 10:25:43 51°20.635 2°36.612 23.466932 0.109124 0.540778 -0.71383
2004-07-23 10:25:49 51°20.648 2°36.581 23.454289 0.109124 0.540801 -0.71383
2004-07-23 10:25:54 51°20.658 2°36.555 23.482387 0.109124 0.540816 -0.74754
2004-07-23 10:25:59 51°20.669 2°36.529 23.444535 0.109124 0.540823 -0.71383
2004-07-23 10:26:05 51°20.681 2°36.497 23.485161 0.109124 0.540846 -0.71383
2004-07-23 10:26:10 51°20.692 2°36.472 23.450048 0.10902 0.540318 -0.74754
2004-07-23 10:26:14 51°20.7 2°36.451 23.450048 0.10902 0.540318 -0.74754
2004-07-23 10:26:19 51°20.711 2°36.425 23.460418 0.109124 0.540869 -0.680121
2004-07-23 10:26:25 51°20.724 2°36.394 23.471866 0.109124 0.540884 -0.71383
2004-07-23 10:26:30 51°20.735 2°36.369 23.45772 0.10902 0.540364 -0.71383
2004-07-23 10:26:34 51°20.743 2°36.348 23.514557 0.10902 0.540379 -0.71383
2004-07-23 10:26:39 51°20.754 2°36.322 23.453055 0.10902 0.540386 -0.74754
2004-07-23 10:26:44 51°20.764 2°36.296 23.453055 0.10902 0.540386 -0.74754
2004-07-23 10:26:50 51°20.777 2°36.264 23.490517 0.10902 0.540409 -0.74754
2004-07-23 10:26:54 51°20.785 2°36.244 23.462808 0.10902 0.540432 -0.71383
2004-07-23 10:26:59 51°20.796 2°36.218 23.458452 0.10902 0.540439 -0.71383
2004-07-23 10:27:04 51°20.807 2°36.192 23.440062 0.10902 0.540454 -0.71383
2004-07-23 10:27:10 51°20.82 2°36.162 23.451899 0.10902 0.540454 -0.71383
2004-07-23 10:27:14 51°20.83 2°36.142 23.451899 0.10902 0.540454 -0.71383
2004-07-23 10:27:20 51°20.844 2°36.113 23.464543 0.10902 0.540462 -0.74754
2004-07-23 10:27:24 51°20.854 2°36.095 23.472829 0.10902 0.540477 -0.71383
2004-07-23 10:27:30 51°20.868 2°36.066 23.503347 0.10902 0.540507 -0.74754
2004-07-23 10:27:34 51°20.879 2°36.048 23.456949 0.10902 0.540515 -0.71383
2004-07-23 10:27:40 51°20.894 2°36.02 23.481539 0.10902 0.540537 -0.74754
2004-07-23 10:27:44 51°20.904 2°36.001 23.481539 0.10902 0.540537 -0.74754
2004-07-23 10:27:51 51°20.921 2°35.968 23.49098 0.10902 0.54056 -0.71383
2004-07-23 10:27:56 51°20.934 2°35.946 23.464119 0.10902 0.540575 -0.71383
2004-07-23 10:28:00 51°20.944 2°35.928 23.463117 0.10902 0.540583 -0.71383
2004-07-23 10:28:04 51°20.955 2°35.911 23.441296 0.10902 0.54059 -0.74754
2004-07-23 10:28:10 51°20.971 2°35.887 23.456563 0.10902 0.540598 -0.71383
2004-07-23 10:28:14 51°20.983 2°35.873 23.456563 0.10902 0.540598 -0.71383
2004-07-23 10:28:18 51°20.995 2°35.859 23.479458 0.10902 0.540613 -0.74754
2004-07-23 10:28:26 51°21.019 2°35.832 23.465005 0.10902 0.540621 -0.74754
2004-07-23 10:28:30 51°21.031 2°35.819 23.506506 0.10902 0.540643 -0.71383
2004-07-23 10:28:34 51°21.043 2°35.805 23.495218 0.10902 0.540666 -0.74754
2004-07-23 10:28:40 51°21.061 2°35.786 23.481385 0.108916 0.540138 -0.71383
2004-07-23 10:28:44 51°21.073 2°35.773 23.481385 0.108916 0.540138 -0.71383
2004-07-23 10:28:50 51°21.091 2°35.754 23.511013 0.10902 0.540704 -0.71383
2004-07-23 10:28:55 51°21.107 2°35.738 23.485971 0.108916 0.540183 -0.74754
2004-07-23 10:29:00 51°21.121 2°35.721 23.54009 0.10902 0.540734 -0.71383
2004-07-23 10:29:04 51°21.134 2°35.707 23.510166 0.108916 0.540206 -0.71383
2004-07-23 10:29:10 51°21.151 2°35.685 23.510089 0.108916 0.540221 -0.71383
2004-07-23 10:29:15 51°21.166 2°35.667 23.510089 0.108916 0.540221 -0.71383
2004-07-23 10:29:20 51°21.18 2°35.648 23.485161 0.108916 0.540221 -0.74754
2004-07-23 10:29:24 51°21.191 2°35.633 23.497761 0.108916 0.540236 -0.71383
2004-07-23 10:29:31 51°21.211 2°35.607 23.484853 0.108916 0.540244 -0.74754
2004-07-23 10:29:35 51°21.223 2°35.592 23.480229 0.108916 0.540259 -0.74754
2004-07-23 10:29:40 51°21.237 2°35.572 23.47703 0.108916 0.540266 -0.71383
2004-07-23 10:29:44 51°21.249 2°35.557 23.47703 0.108916 0.540266 -0.71383
2004-07-23 10:29:48 51°21.26 2°35.543 23.507199 0.108916 0.540281 -0.71383
2004-07-23 10:29:54 51°21.278 2°35.52 23.484853 0.108916 0.540289 -0.71383
2004-07-23 10:30:00 51°21.295 2°35.498 23.489516 0.108916 0.540289 -0.71383
2004-07-23 10:30:04 51°21.306 2°35.484 23.479304 0.108916 0.540304 -0.74754
2004-07-23 10:30:11 51°21.326 2°35.457 23.502423 0.108916 0.540319 -0.71383
2004-07-23 10:30:15 51°21.338 2°35.442 23.502423 0.108916 0.540319 -0.71383
2004-07-23 10:30:19 51°21.349 2°35.427 23.505697 0.108916 0.540319 -0.74754
2004-07-23 10:30:26 51°21.37 2°35.401 23.475489 0.108916 0.540327 -0.71383
2004-07-23 10:30:30 51°21.381 2°35.386 23.522106 0.108916 0.54035 -0.71383
2004-07-23 10:30:35 51°21.395 2°35.367 23.503809 0.108916 0.540357 -0.74754
2004-07-23 10:30:40 51°21.41 2°35.348 23.489053 0.108916 0.540372 -0.74754
2004-07-23 10:30:46 51°21.427 2°35.326 23.489053 0.108916 0.540372 -0.74754
2004-07-23 10:30:51 51°21.441 2°35.307 23.526728 0.108916 0.54038 -0.71383
2004-07-23 10:30:55 51°21.453 2°35.292 23.48836 0.108916 0.54038 -0.74754
2004-07-23 10:31:00 51°21.467 2°35.272 23.503848 0.108916 0.540395 -0.74754
2004-07-23 10:31:04 51°21.478 2°35.257 23.497953 0.108916 0.540403 -0.680121
2004-07-23 10:31:10 51°21.495 2°35.232 23.484776 0.108916 0.54041 -0.71383
2004-07-23 10:31:14 51°21.506 2°35.217 23.484776 0.108916 0.54041 -0.71383
2004-07-23 10:31:20 51°21.523 2°35.193 23.51837 0.108916 0.540425 -0.71383
2004-07-23 10:31:25 51°21.537 2°35.175 23.485547 0.108916 0.540425 -0.71383
2004-07-23 10:31:30 51°21.551 2°35.155 23.505042 0.108916 0.540448 -0.74754
2004-07-23 10:31:34 51°21.563 2°35.141 23.496297 0.108916 0.540456 -0.71383
2004-07-23 10:31:40 51°21.58 2°35.118 23.497183 0.108812 0.539927 -0.74754
2004-07-23 10:31:44 51°21.591 2°35.103 23.497183 0.108812 0.539927 -0.74754
2004-07-23 10:31:50 51°21.608 2°35.079 23.497337 0.108916 0.540471 -0.71383
2004-07-23 10:31:54 51°21.619 2°35.064 23.508933 0.108916 0.540486 -0.71383
2004-07-23 10:32:00 51°21.636 2°35.04 23.499687 0.108812 0.539957 -0.74754
2004-07-23 10:32:04 51°21.647 2°35.025 23.487512 0.108812 0.539965 -0.71383
2004-07-23 10:32:08 51°21.659 2°35.01 23.509857 0.108812 0.539987 -0.71383
2004-07-23 10:32:14 51°21.676 2°34.987 23.509857 0.108812 0.539987 -0.71383
2004-07-23 10:32:20 51°21.693 2°34.965 23.493715 0.108812 0.539987 -0.71383
2004-07-23 10:32:24 51°21.705 2°34.95 23.500881 0.108812 0.540003 -0.74754
2004-07-23 10:32:30 51°21.722 2°34.928 23.51109 0.108812 0.54001 -0.71383
2004-07-23 10:32:34 51°21.734 2°34.914 23.520989 0.108812 0.540025 -0.74754
2004-07-23 10:32:38 51°21.746 2°34.899 23.512092 0.108812 0.540033 -0.74754
2004-07-23 10:32:46 51°21.768 2°34.868 23.512092 0.108812 0.540033 -0.74754
2004-07-23 10:32:50 51°21.779 2°34.853 23.497144 0.108812 0.54004 -0.74754
2004-07-23 10:32:54 51°21.79 2°34.837 23.506121 0.108812 0.540056 -0.71383
2004-07-23 10:33:00 51°21.808 2°34.815 23.516367 0.108812 0.540063 -0.71383
2004-07-23 10:33:06 51°21.825 2°34.792 23.504734 0.108812 0.540063 -0.71383
2004-07-23 10:33:10 51°21.837 2°34.777 23.532889 0.108812 0.540078 -0.781249
2004-07-23 10:33:14 51°21.848 2°34.761 23.532889 0.108812 0.540078 -0.781249
2004-07-23 10:33:19 51°21.862 2°34.742 23.512169 0.108812 0.540086 -0.74754
2004-07-23 10:33:26 51°21.882 2°34.715 23.520527 0.108812 0.540101 -0.74754
2004-07-23 10:33:31 51°21.896 2°34.696 23.499109 0.108812 0.540108 -0.74754
2004-07-23 10:33:34 51°21.904 2°34.685 23.527113 0.108812 0.540116 -0.71383
2004-07-23 10:33:40 51°21.921 2°34.662 23.512708 0.108812 0.540124 -0.680121
2004-07-23 10:33:44 51°21.933 2°34.646 23.512708 0.108812 0.540124 -0.680121
2004-07-23 10:33:50 51°21.95 2°34.623 23.515982 0.108812 0.540131 -0.71383
2004-07-23 10:33:54 51°21.961 2°34.608 23.528923 0.108812 0.540139 -0.71383
2004-07-23 10:34:00 51°21.978 2°34.584 23.500458 0.108812 0.540154 -0.71383
2004-07-23 10:34:04 51°21.989 2°34.569 23.526689 0.108812 0.540161 -0.74754
2004-07-23 10:34:16 51°22.021 2°34.518 23.53828 0.108812 0.540192 -0.71383
2004-07-23 10:34:22 51°22.036 2°34.492 23.53828 0.108812 0.540192 -0.71383
2004-07-23 10:34:26 51°22.047 2°34.474 23.535508 0.108812 0.540199 -0.71383
2004-07-23 10:34:31 51°22.059 2°34.451 23.532081 0.108812 0.540207 -0.71383
2004-07-23 10:34:36 51°22.071 2°34.427 23.521528 0.108812 0.540215 -0.74754
2004-07-23 10:34:42 51°22.086 2°34.399 23.522876 0.108812 0.540215 -0.74754
2004-07-23 10:34:46 51°22.095 2°34.381 23.515597 0.108708 0.539686 -0.71383
2004-07-23 10:34:50 51°22.105 2°34.362 23.522722 0.108812 0.54023 -0.74754
2004-07-23 10:34:56 51°22.12 2°34.334 23.522722 0.108812 0.54023 -0.74754
2004-07-23 10:35:02 51°22.134 2°34.305 23.518678 0.108812 0.540245 -0.71383
2004-07-23 10:35:06 51°22.144 2°34.287 23.511475 0.108708 0.539708 -0.71383
2004-07-23 10:35:10 51°22.154 2°34.269 23.50589 0.108708 0.539716 -0.71383
2004-07-23 10:35:16 51°22.169 2°34.242 23.533236 0.108708 0.539731 -0.71383
2004-07-23 10:35:22 51°22.184 2°34.214 23.533236 0.108708 0.539731 -0.71383
2004-07-23 10:35:26 51°22.194 2°34.196 23.544017 0.108708 0.539739 -0.71383
2004-07-23 10:35:30 51°22.203 2°34.176 23.538896 0.108708 0.539754 -0.74754
2004-07-23 10:35:36 51°22.216 2°34.147 23.544171 0.108708 0.539761 -0.71383
2004-07-23 10:35:42 51°22.23 2°34.117 23.545981 0.108708 0.539776 -0.74754
2004-07-23 10:35:46 51°22.238 2°34.097 23.553411 0.108708 0.539784 -0.781249
2004-07-23 10:35:50 51°22.247 2°34.077 23.553411 0.108708 0.539784 -0.781249
2004-07-23 10:35:56 51°22.259 2°34.045 23.545827 0.108708 0.539799 -0.74754
2004-07-23 10:36:00 51°22.267 2°34.024 23.538819 0.108708 0.539807 -0.71383
2004-07-23 10:36:06 51°22.278 2°33.992 23.532581 0.108708 0.539822 -0.71383
2004-07-23 10:36:10 51°22.285 2°33.97 23.536586 0.108708 0.539829 -0.74754
2004-07-23 10:36:16 51°22.295 2°33.936 23.538742 0.108708 0.539829 -0.71383
2004-07-23 10:36:20 51°22.302 2°33.913 23.538742 0.108708 0.539829 -0.71383
2004-07-23 10:36:26 51°22.311 2°33.879 23.530463 0.108708 0.539837 -0.74754
2004-07-23 10:36:30 51°22.317 2°33.856 23.541322 0.108708 0.539845 -0.74754
2004-07-23 10:36:36 51°22.326 2°33.821 23.538511 0.108708 0.539852 -0.71383
2004-07-23 10:36:42 51°22.335 2°33.786 23.53131 0.108708 0.53986 -0.71383
2004-07-23 10:36:45 51°22.339 2°33.768 23.52511 0.108708 0.53986 -0.71383
2004-07-23 10:36:50 51°22.347 2°33.739 23.52511 0.108708 0.53986 -0.71383
2004-07-23 10:36:55 51°22.353 2°33.709 23.534198 0.108708 0.53986 -0.71383
2004-07-23 10:36:59 51°22.359 2°33.686 23.518216 0.108708 0.53986 -0.680121
2004-07-23 10:37:05 51°22.366 2°33.65 23.557338 0.108708 0.539875 -0.71383
2004-07-23 10:37:10 51°22.373 2°33.62 23.535277 0.108708 0.539882 -0.71383
2004-07-23 10:37:15 51°22.379 2°33.59 23.543632 0.108708 0.539898 -0.680121
2004-07-23 10:37:21 51°22.386 2°33.555 23.543632 0.108708 0.539898 -0.680121
2004-07-23 10:37:25 51°22.391 2°33.531 23.538203 0.108708 0.539913 -0.71383